Time,TemperatureF,DewpointF,PressureIn,WindDirection,WindDirectionDegrees,WindSpeedMPH,WindSpeedGustMPH,Humidity,HourlyPrecipIn,Conditions,Clouds,dailyrainin,SoftwareType,DateUTC
2013-06-29 00:00:00,65.8,59.5,30.07,NE,49,0.0,1.0,80,0.00,,---,0.00,VWS V14.01,2013-06-29 07:00:00,
2013-06-29 00:01:00,65.8,59.5,30.07,NE,49,0.0,1.0,80,0.00,,---,0.00,VWS V14.01,2013-06-29 07:01:00,
2013-06-29 00:05:00,65.6,59.3,30.07,NE,49,0.0,0.0,80,0.00,,---,0.00,VWS V14.01,2013-06-29 07:05:00,
2013-06-29 00:06:00,65.6,59.3,30.07,NE,49,0.0,0.0,80,0.00,,---,0.00,VWS V14.01,2013-06-29 07:06:00,
2013-06-29 00:10:00,65.4,59.4,30.08,NE,49,0.0,0.0,81,0.00,,---,0.00,VWS V14.01,2013-06-29 07:10:00,
2013-06-29 00:11:00,65.4,59.4,30.08,NE,49,0.0,0.0,81,0.00,,---,0.00,VWS V14.01,2013-06-29 07:11:00,
2013-06-29 00:15:00,65.3,59.3,30.08,NE,49,0.0,0.0,81,0.00,,---,0.00,VWS V14.01,2013-06-29 07:15:00,
2013-06-29 00:16:00,65.3,59.3,30.08,NE,49,0.0,0.0,81,0.00,,---,0.00,VWS V14.01,2013-06-29 07:16:00,
2013-06-29 00:20:00,65.0,59.0,30.08,NE,49,0.0,1.0,81,0.00,,---,0.00,VWS V14.01,2013-06-29 07:20:00,
2013-06-29 00:21:00,65.0,59.0,30.08,NE,49,0.0,0.0,81,0.00,,---,0.00,VWS V14.01,2013-06-29 07:21:00,
2013-06-29 00:25:00,64.8,59.2,30.09,NE,49,0.0,1.0,82,0.00,,---,0.00,VWS V14.01,2013-06-29 07:25:00,
2013-06-29 00:26:00,64.8,59.2,30.09,NE,49,0.0,1.0,82,0.00,,---,0.00,VWS V14.01,2013-06-29 07:26:00,
2013-06-29 00:30:00,64.6,59.0,30.08,NE,47,0.0,1.0,82,0.00,,---,0.00,VWS V14.01,2013-06-29 07:30:00,
2013-06-29 00:31:00,64.6,59.0,30.08,NE,47,0.0,1.0,82,0.00,,---,0.00,VWS V14.01,2013-06-29 07:31:00,
2013-06-29 00:35:00,64.5,58.9,30.08,NE,48,0.0,0.0,82,0.00,,---,0.00,VWS V14.01,2013-06-29 07:35:00,
2013-06-29 00:36:00,64.5,58.9,30.08,NE,48,0.0,0.0,82,0.00,,---,0.00,VWS V14.01,2013-06-29 07:36:00,
2013-06-29 00:40:00,64.6,59.0,30.08,NE,48,0.0,1.0,82,0.00,,---,0.00,VWS V14.01,2013-06-29 07:40:00,
2013-06-29 00:41:00,64.6,59.0,30.08,NE,48,0.0,1.0,82,0.00,,---,0.00,VWS V14.01,2013-06-29 07:41:00,
2013-06-29 00:45:00,64.6,59.0,30.08,NE,48,0.0,0.0,82,0.00,,---,0.00,VWS V14.01,2013-06-29 07:45:00,
2013-06-29 00:46:00,64.6,59.0,30.08,NE,48,0.0,0.0,82,0.00,,---,0.00,VWS V14.01,2013-06-29 07:46:00,
2013-06-29 00:50:00,64.4,58.8,30.08,NE,48,0.0,0.0,82,0.00,,---,0.00,VWS V14.01,2013-06-29 07:50:00,
2013-06-29 00:51:00,64.4,58.8,30.08,NE,48,0.0,0.0,82,0.00,,---,0.00,VWS V14.01,2013-06-29 07:51:00,
2013-06-29 00:55:00,64.1,58.5,30.08,NE,48,0.0,1.0,82,0.00,,---,0.00,VWS V14.01,2013-06-29 07:55:00,
2013-06-29 00:56:00,64.2,58.6,30.08,NE,48,0.0,1.0,82,0.00,,---,0.00,VWS V14.01,2013-06-29 07:56:00,
2013-06-29 01:00:00,63.9,58.6,30.08,NE,48,0.0,0.0,83,0.00,,---,0.00,VWS V14.01,2013-06-29 08:00:00,
2013-06-29 01:01:00,63.9,58.6,30.08,NE,48,0.0,0.0,83,0.00,,---,0.00,VWS V14.01,2013-06-29 08:01:00,
2013-06-29 01:05:00,63.8,58.5,30.08,NE,48,0.0,1.0,83,0.00,,---,0.00,VWS V14.01,2013-06-29 08:05:00,
2013-06-29 01:06:00,63.8,58.5,30.08,NE,48,0.0,1.0,83,0.00,,---,0.00,VWS V14.01,2013-06-29 08:06:00,
2013-06-29 01:10:00,63.6,58.3,30.09,NE,48,0.0,0.0,83,0.00,,---,0.00,VWS V14.01,2013-06-29 08:10:00,
2013-06-29 01:11:00,63.6,58.3,30.09,NE,48,0.0,0.0,83,0.00,,---,0.00,VWS V14.01,2013-06-29 08:11:00,
2013-06-29 01:15:00,63.5,58.2,30.09,NE,48,0.0,1.0,83,0.00,,---,0.00,VWS V14.01,2013-06-29 08:15:00,
2013-06-29 01:16:00,63.5,58.2,30.09,NE,48,0.0,1.0,83,0.00,,---,0.00,VWS V14.01,2013-06-29 08:16:00,
2013-06-29 01:20:00,63.4,58.5,30.09,NE,48,0.0,0.0,84,0.00,,---,0.00,VWS V14.01,2013-06-29 08:20:00,
2013-06-29 01:21:00,63.4,58.5,30.09,NE,48,0.0,0.0,84,0.00,,---,0.00,VWS V14.01,2013-06-29 08:21:00,
2013-06-29 01:25:00,63.3,58.4,30.08,NE,48,0.0,0.0,84,0.00,,---,0.00,VWS V14.01,2013-06-29 08:25:00,
2013-06-29 01:26:00,63.3,58.4,30.08,NE,48,0.0,0.0,84,0.00,,---,0.00,VWS V14.01,2013-06-29 08:26:00,
2013-06-29 01:30:00,63.2,58.3,30.08,NE,48,0.0,0.0,84,0.00,,---,0.00,VWS V14.01,2013-06-29 08:30:00,
2013-06-29 01:31:00,63.2,58.3,30.08,NE,48,0.0,0.0,84,0.00,,---,0.00,VWS V14.01,2013-06-29 08:31:00,
2013-06-29 01:35:00,63.5,58.6,30.08,NE,48,0.0,1.0,84,0.00,,---,0.00,VWS V14.01,2013-06-29 08:35:00,
2013-06-29 01:36:00,63.5,58.6,30.08,NE,48,0.0,1.0,84,0.00,,---,0.00,VWS V14.01,2013-06-29 08:36:00,
2013-06-29 01:40:00,63.8,58.5,30.08,NE,48,0.0,0.0,83,0.00,,---,0.00,VWS V14.01,2013-06-29 08:40:00,
2013-06-29 01:41:00,63.8,58.5,30.08,NE,48,0.0,0.0,83,0.00,,---,0.00,VWS V14.01,2013-06-29 08:41:00,
2013-06-29 01:45:00,63.8,58.5,30.08,NE,48,0.0,1.0,83,0.00,,---,0.00,VWS V14.01,2013-06-29 08:45:00,
2013-06-29 01:46:00,63.8,58.5,30.08,NE,48,0.0,1.0,83,0.00,,---,0.00,VWS V14.01,2013-06-29 08:46:00,
2013-06-29 01:50:00,63.7,58.8,30.08,NE,48,0.0,0.0,84,0.00,,---,0.00,VWS V14.01,2013-06-29 08:50:00,
2013-06-29 01:53:00,63.6,58.7,30.08,NE,48,0.0,0.0,84,0.00,,---,0.00,VWS V14.01,2013-06-29 08:53:00,
2013-06-29 01:55:00,63.4,58.5,30.08,NE,48,0.0,1.0,84,0.00,,---,0.00,VWS V14.01,2013-06-29 08:55:00,
2013-06-29 01:58:00,63.4,58.5,30.09,NE,48,0.0,0.0,84,0.00,,---,0.00,VWS V14.01,2013-06-29 08:58:00,
2013-06-29 02:00:00,63.3,58.4,30.09,NE,48,0.0,1.0,84,0.00,,---,0.00,VWS V14.01,2013-06-29 09:00:00,
2013-06-29 02:03:00,63.2,58.3,30.09,NNE,20,1.0,1.0,84,0.00,,---,0.00,VWS V14.01,2013-06-29 09:03:00,
2013-06-29 02:05:00,63.2,58.3,30.09,NNE,20,0.0,1.0,84,0.00,,---,0.00,VWS V14.01,2013-06-29 09:05:00,
2013-06-29 02:08:00,63.2,58.3,30.09,NNE,20,0.0,0.0,84,0.00,,---,0.00,VWS V14.01,2013-06-29 09:08:00,
2013-06-29 02:10:00,63.1,58.2,30.09,NNE,20,0.0,0.0,84,0.00,,---,0.00,VWS V14.01,2013-06-29 09:10:00,
2013-06-29 02:13:00,63.2,58.3,30.09,NNE,20,0.0,1.0,84,0.00,,---,0.00,VWS V14.01,2013-06-29 09:13:00,
2013-06-29 02:15:00,63.3,58.4,30.09,NNE,21,0.0,1.0,84,0.00,,---,0.00,VWS V14.01,2013-06-29 09:15:00,
2013-06-29 02:18:00,63.2,58.3,30.09,NNE,20,0.0,1.0,84,0.00,,---,0.00,VWS V14.01,2013-06-29 09:18:00,
2013-06-29 02:20:00,63.3,58.4,30.09,NNE,20,0.0,1.0,84,0.00,,---,0.00,VWS V14.01,2013-06-29 09:20:00,
2013-06-29 02:23:00,63.3,58.4,30.09,NNE,20,0.0,0.0,84,0.00,,---,0.00,VWS V14.01,2013-06-29 09:23:00,
2013-06-29 02:25:00,63.2,58.3,30.09,NNE,20,0.0,0.0,84,0.00,,---,0.00,VWS V14.01,2013-06-29 09:25:00,
2013-06-29 02:28:00,63.2,58.3,30.09,NNE,20,0.0,0.0,84,0.00,,---,0.00,VWS V14.01,2013-06-29 09:28:00,
2013-06-29 02:30:00,63.2,58.3,30.09,NNE,20,0.0,0.0,84,0.00,,---,0.00,VWS V14.01,2013-06-29 09:30:00,
2013-06-29 02:33:00,63.2,58.3,30.09,NNE,20,0.0,0.0,84,0.00,,---,0.00,VWS V14.01,2013-06-29 09:33:00,
2013-06-29 02:35:00,63.1,58.2,30.09,NNE,20,0.0,0.0,84,0.00,,---,0.00,VWS V14.01,2013-06-29 09:35:00,
2013-06-29 02:38:00,63.1,58.2,30.09,NNE,20,0.0,0.0,84,0.00,,---,0.00,VWS V14.01,2013-06-29 09:38:00,
2013-06-29 02:40:00,63.0,58.1,30.09,NNE,20,0.0,0.0,84,0.00,,---,0.00,VWS V14.01,2013-06-29 09:40:00,
2013-06-29 02:42:00,63.0,58.1,30.09,NNE,20,0.0,0.0,84,0.00,,---,0.00,VWS V14.01,2013-06-29 09:42:00,
2013-06-29 02:45:00,62.9,58.0,30.09,NNE,20,0.0,0.0,84,0.00,,---,0.00,VWS V14.01,2013-06-29 09:45:00,
2013-06-29 02:47:00,62.8,57.9,30.09,NNE,20,0.0,0.0,84,0.00,,---,0.00,VWS V14.01,2013-06-29 09:47:00,
2013-06-29 02:50:00,62.8,57.9,30.09,NNE,20,0.0,0.0,84,0.00,,---,0.00,VWS V14.01,2013-06-29 09:50:00,
2013-06-29 02:52:00,62.9,58.0,30.09,NNE,20,0.0,0.0,84,0.00,,---,0.00,VWS V14.01,2013-06-29 09:52:00,
2013-06-29 02:55:00,62.9,58.0,30.09,NNE,20,0.0,0.0,84,0.00,,---,0.00,VWS V14.01,2013-06-29 09:55:00,
2013-06-29 02:57:00,63.0,58.1,30.09,NNE,20,0.0,0.0,84,0.00,,---,0.00,VWS V14.01,2013-06-29 09:57:00,
2013-06-29 03:00:00,62.9,58.0,30.09,NNE,20,0.0,0.0,84,0.00,,---,0.00,VWS V14.01,2013-06-29 10:00:00,
2013-06-29 03:02:00,62.9,58.0,30.09,NNE,20,0.0,0.0,84,0.00,,---,0.00,VWS V14.01,2013-06-29 10:02:00,
2013-06-29 03:05:00,62.8,57.9,30.09,NNE,20,0.0,0.0,84,0.00,,---,0.00,VWS V14.01,2013-06-29 10:05:00,
2013-06-29 03:07:00,62.8,57.9,30.09,NNE,20,0.0,0.0,84,0.00,,---,0.00,VWS V14.01,2013-06-29 10:07:00,
2013-06-29 03:10:00,62.9,58.0,30.09,NNE,20,0.0,0.0,84,0.00,,---,0.00,VWS V14.01,2013-06-29 10:10:00,
2013-06-29 03:12:00,62.9,58.0,30.10,NNE,20,0.0,0.0,84,0.00,,---,0.00,VWS V14.01,2013-06-29 10:12:00,
2013-06-29 03:15:00,63.0,58.1,30.09,NNE,20,0.0,0.0,84,0.00,,---,0.00,VWS V14.01,2013-06-29 10:15:00,
2013-06-29 03:17:00,63.0,58.1,30.09,NNE,20,0.0,0.0,84,0.00,,---,0.00,VWS V14.01,2013-06-29 10:17:00,
2013-06-29 03:20:00,63.2,58.3,30.09,NNE,21,0.0,0.0,84,0.00,,---,0.00,VWS V14.01,2013-06-29 10:20:00,
2013-06-29 03:22:00,63.3,58.4,30.09,East,88,1.0,1.0,84,0.00,,---,0.00,VWS V14.01,2013-06-29 10:22:00,
2013-06-29 03:25:00,64.0,59.1,30.09,ESE,103,0.0,2.0,84,0.00,,---,0.00,VWS V14.01,2013-06-29 10:25:00,
2013-06-29 03:27:00,64.2,58.9,30.09,ESE,103,0.0,1.0,83,0.00,,---,0.00,VWS V14.01,2013-06-29 10:27:00,
2013-06-29 03:30:00,64.7,59.4,30.09,East,99,1.0,2.0,83,0.00,,---,0.00,VWS V14.01,2013-06-29 10:30:00,
2013-06-29 03:32:00,64.8,59.5,30.09,East,99,0.0,1.0,83,0.00,,---,0.00,VWS V14.01,2013-06-29 10:32:00,
2013-06-29 03:35:00,65.0,59.7,30.09,East,92,2.0,3.0,83,0.00,,---,0.00,VWS V14.01,2013-06-29 10:35:00,
2013-06-29 03:37:00,65.1,59.5,30.09,East,86,1.0,3.0,82,0.00,,---,0.00,VWS V14.01,2013-06-29 10:37:00,
2013-06-29 03:40:00,65.2,59.6,30.09,East,86,2.0,3.0,82,0.00,,---,0.00,VWS V14.01,2013-06-29 10:40:00,
2013-06-29 03:42:00,65.3,59.7,30.09,East,91,0.0,2.0,82,0.00,,---,0.00,VWS V14.01,2013-06-29 10:42:00,
2013-06-29 03:45:00,65.4,59.8,30.09,SSE,153,1.0,2.0,82,0.00,,---,0.00,VWS V14.01,2013-06-29 10:45:00,
2013-06-29 03:47:00,65.4,59.8,30.09,East,96,3.0,3.0,82,0.00,,---,0.00,VWS V14.01,2013-06-29 10:47:00,
2013-06-29 03:50:00,65.6,59.6,30.09,East,89,2.0,4.0,81,0.00,,---,0.00,VWS V14.01,2013-06-29 10:50:00,
2013-06-29 03:52:00,65.6,59.6,30.09,East,94,1.0,4.0,81,0.00,,---,0.00,VWS V14.01,2013-06-29 10:52:00,
2013-06-29 03:55:00,65.8,59.8,30.09,East,99,0.0,4.0,81,0.00,,---,0.00,VWS V14.01,2013-06-29 10:55:00,
2013-06-29 03:57:00,65.8,59.8,30.09,East,99,0.0,0.0,81,0.00,,---,0.00,VWS V14.01,2013-06-29 10:57:00,
2013-06-29 04:00:00,65.6,59.6,30.09,East,99,0.0,1.0,81,0.00,,---,0.00,VWS V14.01,2013-06-29 11:00:00,
2013-06-29 04:02:00,65.7,59.7,30.09,East,82,2.0,3.0,81,0.00,,---,0.00,VWS V14.01,2013-06-29 11:02:00,
2013-06-29 04:05:00,65.8,59.8,30.09,East,89,0.0,3.0,81,0.00,,---,0.00,VWS V14.01,2013-06-29 11:05:00,
2013-06-29 04:07:00,65.8,59.8,30.09,East,89,0.0,2.0,81,0.00,,---,0.00,VWS V14.01,2013-06-29 11:07:00,
2013-06-29 04:10:00,65.9,59.9,30.09,East,85,1.0,2.0,81,0.00,,---,0.00,VWS V14.01,2013-06-29 11:10:00,
2013-06-29 04:12:00,65.8,59.8,30.09,East,85,1.0,1.0,81,0.00,,---,0.00,VWS V14.01,2013-06-29 11:12:00,
2013-06-29 04:15:00,65.7,59.7,30.08,East,85,0.0,1.0,81,0.00,,---,0.00,VWS V14.01,2013-06-29 11:15:00,
2013-06-29 04:17:00,65.7,59.7,30.09,East,85,0.0,0.0,81,0.00,,---,0.00,VWS V14.01,2013-06-29 11:17:00,
2013-06-29 04:20:00,65.5,59.9,30.08,East,85,0.0,1.0,82,0.00,,---,0.00,VWS V14.01,2013-06-29 11:20:00,
2013-06-29 04:22:00,65.5,59.9,30.08,East,85,0.0,0.0,82,0.00,,---,0.00,VWS V14.01,2013-06-29 11:22:00,
2013-06-29 04:25:00,65.4,59.8,30.08,East,85,0.0,0.0,82,0.00,,---,0.00,VWS V14.01,2013-06-29 11:25:00,
2013-06-29 04:27:00,65.4,59.8,30.09,East,85,0.0,0.0,82,0.00,,---,0.00,VWS V14.01,2013-06-29 11:27:00,
2013-06-29 04:30:00,65.4,59.8,30.08,East,89,1.0,2.0,82,0.00,,---,0.00,VWS V14.01,2013-06-29 11:30:00,
2013-06-29 04:32:00,65.4,59.8,30.08,East,89,0.0,1.0,82,0.00,,---,0.00,VWS V14.01,2013-06-29 11:32:00,
2013-06-29 04:35:00,65.6,60.0,30.09,East,89,0.0,2.0,82,0.00,,---,0.00,VWS V14.01,2013-06-29 11:35:00,
2013-06-29 04:37:00,65.5,59.9,30.09,SE,132,0.0,0.0,82,0.00,,---,0.00,VWS V14.01,2013-06-29 11:37:00,
2013-06-29 04:40:00,65.4,59.8,30.09,SE,132,0.0,0.0,82,0.00,,---,0.00,VWS V14.01,2013-06-29 11:40:00,
2013-06-29 04:42:00,65.4,59.8,30.09,SE,132,0.0,0.0,82,0.00,,---,0.00,VWS V14.01,2013-06-29 11:42:00,
2013-06-29 04:45:00,65.4,59.8,30.09,SE,132,0.0,0.0,82,0.00,,---,0.00,VWS V14.01,2013-06-29 11:45:00,
2013-06-29 04:47:00,65.3,59.7,30.08,SE,132,0.0,0.0,82,0.00,,---,0.00,VWS V14.01,2013-06-29 11:47:00,
2013-06-29 04:50:00,65.4,60.1,30.08,SE,132,0.0,1.0,83,0.00,,---,0.00,VWS V14.01,2013-06-29 11:50:00,
2013-06-29 04:52:00,65.4,60.1,30.08,SE,132,0.0,0.0,83,0.00,,---,0.00,VWS V14.01,2013-06-29 11:52:00,
2013-06-29 04:55:00,65.3,60.0,30.08,SE,132,0.0,0.0,83,0.00,,---,0.00,VWS V14.01,2013-06-29 11:55:00,
2013-06-29 04:57:00,65.3,60.0,30.08,SE,132,0.0,0.0,83,0.00,,---,0.00,VWS V14.01,2013-06-29 11:57:00,
2013-06-29 05:00:00,65.2,59.9,30.08,SE,124,0.0,1.0,83,0.00,,---,0.00,VWS V14.01,2013-06-29 12:00:00,
2013-06-29 05:02:00,65.3,60.0,30.08,SE,124,0.0,0.0,83,0.00,,---,0.00,VWS V14.01,2013-06-29 12:02:00,
2013-06-29 05:05:00,65.3,60.0,30.07,ESE,119,1.0,1.0,83,0.00,,---,0.00,VWS V14.01,2013-06-29 12:05:00,
2013-06-29 05:07:00,65.3,60.0,30.07,East,98,1.0,2.0,83,0.00,,---,0.00,VWS V14.01,2013-06-29 12:07:00,
2013-06-29 05:10:00,65.4,60.1,30.06,East,100,1.0,3.0,83,0.00,,---,0.00,VWS V14.01,2013-06-29 12:10:00,
2013-06-29 05:12:00,65.4,60.1,30.07,East,98,0.0,1.0,83,0.00,,---,0.00,VWS V14.01,2013-06-29 12:12:00,
2013-06-29 05:15:00,65.3,60.0,30.08,ESE,111,0.0,3.0,83,0.00,,---,0.00,VWS V14.01,2013-06-29 12:15:00,
2013-06-29 05:17:00,65.3,60.0,30.09,SW,229,0.0,2.0,83,0.00,,---,0.00,VWS V14.01,2013-06-29 12:17:00,
2013-06-29 05:20:00,65.1,59.8,30.09,SW,229,0.0,2.0,83,0.00,,---,0.00,VWS V14.01,2013-06-29 12:20:00,
2013-06-29 05:22:00,65.0,59.7,30.09,SW,229,0.0,1.0,83,0.00,,---,0.00,VWS V14.01,2013-06-29 12:22:00,
2013-06-29 05:25:00,64.6,59.3,30.08,WSW,238,0.0,1.0,83,0.00,,---,0.00,VWS V14.01,2013-06-29 12:25:00,
2013-06-29 05:27:00,64.5,59.2,30.08,WSW,238,0.0,0.0,83,0.00,,---,0.00,VWS V14.01,2013-06-29 12:27:00,
2013-06-29 05:30:00,64.2,58.9,30.09,WSW,238,0.0,1.0,83,0.00,,---,0.00,VWS V14.01,2013-06-29 12:30:00,
2013-06-29 05:32:00,64.0,58.7,30.09,WSW,238,0.0,1.0,83,0.00,,---,0.00,VWS V14.01,2013-06-29 12:32:00,
2013-06-29 05:35:00,63.7,58.8,30.09,WSW,238,0.0,1.0,84,0.00,,---,0.00,VWS V14.01,2013-06-29 12:35:00,
2013-06-29 05:37:00,63.6,58.7,30.09,WSW,238,0.0,0.0,84,0.00,,---,0.00,VWS V14.01,2013-06-29 12:37:00,
2013-06-29 05:40:00,63.3,58.4,30.09,WSW,238,0.0,1.0,84,0.00,,---,0.00,VWS V14.01,2013-06-29 12:40:00,
2013-06-29 05:42:00,63.3,58.4,30.09,WSW,238,0.0,1.0,84,0.00,,---,0.00,VWS V14.01,2013-06-29 12:42:00,
2013-06-29 05:45:00,63.2,58.3,30.09,WSW,238,1.0,1.0,84,0.00,,---,0.00,VWS V14.01,2013-06-29 12:45:00,
2013-06-29 05:47:00,63.2,58.3,30.09,WSW,238,0.0,1.0,84,0.00,,---,0.00,VWS V14.01,2013-06-29 12:47:00,
2013-06-29 05:50:00,63.3,58.4,30.08,WSW,238,1.0,1.0,84,0.00,,---,0.00,VWS V14.01,2013-06-29 12:50:00,
2013-06-29 05:52:00,63.3,58.4,30.09,WSW,238,1.0,1.0,84,0.00,,---,0.00,VWS V14.01,2013-06-29 12:52:00,
2013-06-29 05:55:00,63.3,58.4,30.09,WSW,253,1.0,3.0,84,0.00,,---,0.00,VWS V14.01,2013-06-29 12:55:00,
2013-06-29 05:57:00,63.3,58.4,30.09,SSW,212,1.0,2.0,84,0.00,,---,0.00,VWS V14.01,2013-06-29 12:57:00,
2013-06-29 06:00:00,63.2,58.3,30.09,SW,222,0.0,2.0,84,0.00,,---,0.00,VWS V14.01,2013-06-29 13:00:00,
2013-06-29 06:02:00,63.2,58.3,30.09,SW,221,0.0,0.0,84,0.00,,---,0.00,VWS V14.01,2013-06-29 13:02:00,
2013-06-29 06:05:00,63.2,58.3,30.09,South,176,0.0,0.0,84,0.00,,---,0.00,VWS V14.01,2013-06-29 13:05:00,
2013-06-29 06:07:00,63.2,58.3,30.09,South,176,0.0,0.0,84,0.00,,---,0.00,VWS V14.01,2013-06-29 13:07:00,
2013-06-29 06:10:00,63.2,58.3,30.09,South,176,0.0,0.0,84,0.00,,---,0.00,VWS V14.01,2013-06-29 13:10:00,
2013-06-29 06:12:00,63.2,58.3,30.09,South,176,0.0,0.0,84,0.00,,---,0.00,VWS V14.01,2013-06-29 13:12:00,
2013-06-29 06:15:00,63.2,58.3,30.09,WSW,250,0.0,1.0,84,0.00,,---,0.00,VWS V14.01,2013-06-29 13:15:00,
2013-06-29 06:17:00,63.1,58.2,30.08,WSW,250,0.0,0.0,84,0.00,,---,0.00,VWS V14.01,2013-06-29 13:17:00,
2013-06-29 06:20:00,63.1,58.2,30.07,WSW,250,1.0,1.0,84,0.00,,---,0.00,VWS V14.01,2013-06-29 13:20:00,
2013-06-29 06:22:00,63.1,58.2,30.07,SE,127,1.0,1.0,84,0.00,,---,0.00,VWS V14.01,2013-06-29 13:22:00,
2013-06-29 06:25:00,63.2,58.6,30.07,SE,127,0.0,1.0,85,0.00,,---,0.00,VWS V14.01,2013-06-29 13:25:00,
2013-06-29 06:27:00,63.2,58.3,30.07,SE,127,0.0,1.0,84,0.00,,---,0.00,VWS V14.01,2013-06-29 13:27:00,
2013-06-29 06:30:00,63.3,58.7,30.08,SE,127,0.0,1.0,85,0.00,,---,0.00,VWS V14.01,2013-06-29 13:30:00,
2013-06-29 06:32:00,63.3,58.7,30.08,SE,127,0.0,0.0,85,0.00,,---,0.00,VWS V14.01,2013-06-29 13:32:00,
2013-06-29 06:35:00,63.4,58.8,30.08,SE,127,0.0,0.0,85,0.00,,---,0.00,VWS V14.01,2013-06-29 13:35:00,
2013-06-29 06:37:00,63.4,58.8,30.08,SE,127,0.0,0.0,85,0.00,,---,0.00,VWS V14.01,2013-06-29 13:37:00,
2013-06-29 06:40:00,63.5,58.9,30.08,SE,127,0.0,0.0,85,0.00,,---,0.00,VWS V14.01,2013-06-29 13:40:00,
2013-06-29 06:42:00,63.5,58.9,30.08,SE,127,0.0,0.0,85,0.00,,---,0.00,VWS V14.01,2013-06-29 13:42:00,
2013-06-29 06:45:00,63.6,59.0,30.08,SE,127,0.0,0.0,85,0.00,,---,0.00,VWS V14.01,2013-06-29 13:45:00,
2013-06-29 06:47:00,63.6,59.0,30.08,SE,127,0.0,0.0,85,0.00,,---,0.00,VWS V14.01,2013-06-29 13:47:00,
2013-06-29 06:50:00,63.8,58.9,30.08,SE,127,0.0,0.0,84,0.00,,---,0.00,VWS V14.01,2013-06-29 13:50:00,
2013-06-29 06:52:00,63.8,58.9,30.08,SE,127,0.0,0.0,84,0.00,,---,0.00,VWS V14.01,2013-06-29 13:52:00,
2013-06-29 06:55:00,64.1,59.2,30.08,SE,127,0.0,0.0,84,0.00,,---,0.00,VWS V14.01,2013-06-29 13:55:00,
2013-06-29 06:57:00,64.1,59.2,30.07,SE,127,0.0,0.0,84,0.00,,---,0.00,VWS V14.01,2013-06-29 13:57:00,
2013-06-29 07:00:00,64.2,59.3,30.07,SE,127,0.0,1.0,84,0.00,,---,0.00,VWS V14.01,2013-06-29 14:00:00,
2013-06-29 07:02:00,64.2,59.3,30.07,SE,127,0.0,1.0,84,0.00,,---,0.00,VWS V14.01,2013-06-29 14:02:00,
2013-06-29 07:05:00,64.5,59.6,30.07,ESE,123,1.0,1.0,84,0.00,,---,0.00,VWS V14.01,2013-06-29 14:05:00,
2013-06-29 07:07:00,64.5,59.6,30.07,ESE,123,0.0,1.0,84,0.00,,---,0.00,VWS V14.01,2013-06-29 14:07:00,
2013-06-29 07:10:00,64.5,59.6,30.07,ESE,108,0.0,1.0,84,0.00,,---,0.00,VWS V14.01,2013-06-29 14:10:00,
2013-06-29 07:12:00,64.5,59.6,30.07,ESE,108,0.0,0.0,84,0.00,,---,0.00,VWS V14.01,2013-06-29 14:12:00,
2013-06-29 07:15:00,64.5,59.6,30.08,ESE,109,0.0,1.0,84,0.00,,---,0.00,VWS V14.01,2013-06-29 14:15:00,
2013-06-29 07:17:00,64.5,59.6,30.08,ESE,109,0.0,0.0,84,0.00,,---,0.00,VWS V14.01,2013-06-29 14:17:00,
2013-06-29 07:20:00,64.5,59.9,30.08,ESE,109,0.0,1.0,85,0.00,,---,0.00,VWS V14.01,2013-06-29 14:20:00,
2013-06-29 07:22:00,64.5,59.9,30.08,ESE,109,0.0,0.0,85,0.00,,---,0.00,VWS V14.01,2013-06-29 14:22:00,
2013-06-29 07:25:00,64.4,59.8,30.07,ESE,109,0.0,1.0,85,0.00,,---,0.00,VWS V14.01,2013-06-29 14:25:00,
2013-06-29 07:27:00,64.4,59.8,30.07,ESE,109,0.0,1.0,85,0.00,,---,0.00,VWS V14.01,2013-06-29 14:27:00,
2013-06-29 07:30:00,64.4,59.8,30.07,SW,224,0.0,1.0,85,0.00,,---,0.00,VWS V14.01,2013-06-29 14:30:00,
2013-06-29 07:32:00,64.4,59.8,30.07,SW,224,0.0,1.0,85,0.00,,---,0.00,VWS V14.01,2013-06-29 14:32:00,
2013-06-29 07:35:00,64.2,59.6,30.07,SW,224,0.0,1.0,85,0.00,,---,0.00,VWS V14.01,2013-06-29 14:35:00,
2013-06-29 07:37:00,64.2,59.6,30.07,SW,224,0.0,1.0,85,0.00,,---,0.00,VWS V14.01,2013-06-29 14:37:00,
2013-06-29 07:40:00,64.1,59.2,30.07,SE,136,1.0,2.0,84,0.00,,---,0.00,VWS V14.01,2013-06-29 14:40:00,
2013-06-29 07:42:00,64.0,59.1,30.07,SSE,167,0.0,1.0,84,0.00,,---,0.00,VWS V14.01,2013-06-29 14:42:00,
2013-06-29 07:45:00,63.9,59.0,30.07,SSE,151,0.0,1.0,84,0.00,,---,0.00,VWS V14.01,2013-06-29 14:45:00,
2013-06-29 07:47:00,63.9,59.0,30.07,SSE,151,0.0,0.0,84,0.00,,---,0.00,VWS V14.01,2013-06-29 14:47:00,
2013-06-29 07:50:00,63.9,59.0,30.07,SSE,151,0.0,0.0,84,0.00,,---,0.00,VWS V14.01,2013-06-29 14:50:00,
2013-06-29 07:52:00,63.9,59.0,30.07,SSE,151,0.0,0.0,84,0.00,,---,0.00,VWS V14.01,2013-06-29 14:52:00,
2013-06-29 07:55:00,64.0,59.1,30.07,SSE,153,0.0,1.0,84,0.00,,---,0.00,VWS V14.01,2013-06-29 14:55:00,
2013-06-29 07:57:00,64.1,59.2,30.07,SSE,153,1.0,1.0,84,0.00,,---,0.00,VWS V14.01,2013-06-29 14:57:00,
2013-06-29 08:00:00,64.1,59.2,30.07,SSE,153,0.0,1.0,84,0.00,,---,0.00,VWS V14.01,2013-06-29 15:00:00,
2013-06-29 08:02:00,64.1,59.2,30.07,SSE,153,0.0,0.0,84,0.00,,---,0.00,VWS V14.01,2013-06-29 15:02:00,
2013-06-29 08:05:00,64.7,59.8,30.07,SSE,153,0.0,0.0,84,0.00,,---,0.00,VWS V14.01,2013-06-29 15:05:00,
2013-06-29 08:07:00,64.8,59.9,30.07,WSW,256,0.0,0.0,84,0.00,,---,0.00,VWS V14.01,2013-06-29 15:07:00,
2013-06-29 08:10:00,65.2,59.9,30.08,South,188,0.0,1.0,83,0.00,,---,0.00,VWS V14.01,2013-06-29 15:10:00,
2013-06-29 08:12:00,65.4,60.1,30.08,South,188,0.0,0.0,83,0.00,,---,0.00,VWS V14.01,2013-06-29 15:12:00,
2013-06-29 08:15:00,65.9,60.6,30.08,South,188,0.0,1.0,83,0.00,,---,0.00,VWS V14.01,2013-06-29 15:15:00,
2013-06-29 08:17:00,66.1,60.5,30.08,SSW,194,0.0,1.0,82,0.00,,---,0.00,VWS V14.01,2013-06-29 15:17:00,
2013-06-29 08:20:00,66.4,60.7,30.08,SSE,153,1.0,2.0,82,0.00,,---,0.00,VWS V14.01,2013-06-29 15:20:00,
2013-06-29 08:22:00,66.5,60.5,30.08,SE,127,0.0,1.0,81,0.00,,---,0.00,VWS V14.01,2013-06-29 15:22:00,
2013-06-29 08:25:00,66.8,60.8,30.08,SW,214,1.0,2.0,81,0.00,,---,0.00,VWS V14.01,2013-06-29 15:25:00,
2013-06-29 08:27:00,66.8,60.8,30.08,WSW,244,2.0,2.0,81,0.00,,---,0.00,VWS V14.01,2013-06-29 15:27:00,
2013-06-29 08:30:00,67.1,61.1,30.08,WSW,254,2.0,4.0,81,0.00,,---,0.00,VWS V14.01,2013-06-29 15:30:00,
2013-06-29 08:32:00,67.1,61.1,30.08,SW,236,1.0,3.0,81,0.00,,---,0.00,VWS V14.01,2013-06-29 15:32:00,
2013-06-29 08:35:00,67.2,60.8,30.08,West,278,3.0,3.0,80,0.00,,---,0.00,VWS V14.01,2013-06-29 15:35:00,
2013-06-29 08:37:00,67.2,60.8,30.08,SW,231,3.0,4.0,80,0.00,,---,0.00,VWS V14.01,2013-06-29 15:37:00,
2013-06-29 08:40:00,66.9,60.5,30.08,SW,224,1.0,4.0,80,0.00,,---,0.00,VWS V14.01,2013-06-29 15:40:00,
2013-06-29 08:42:00,66.9,60.5,30.08,West,259,1.0,1.0,80,0.00,,---,0.00,VWS V14.01,2013-06-29 15:42:00,
2013-06-29 08:45:00,67.2,61.2,30.08,WSW,258,1.0,1.0,81,0.00,,---,0.00,VWS V14.01,2013-06-29 15:45:00,
2013-06-29 08:47:00,67.3,60.9,30.08,NW,324,0.0,2.0,80,0.00,,---,0.00,VWS V14.01,2013-06-29 15:47:00,
2013-06-29 08:50:00,67.3,60.9,30.08,WSW,251,0.0,2.0,80,0.00,,---,0.00,VWS V14.01,2013-06-29 15:50:00,
2013-06-29 08:52:00,67.4,61.0,30.08,SSE,151,0.0,0.0,80,0.00,,---,0.00,VWS V14.01,2013-06-29 15:52:00,
2013-06-29 08:55:00,68.2,61.5,30.08,SE,143,0.0,1.0,79,0.00,,---,0.00,VWS V14.01,2013-06-29 15:55:00,
2013-06-29 08:57:00,68.3,61.5,30.08,SE,143,0.0,0.0,79,0.00,,---,0.00,VWS V14.01,2013-06-29 15:57:00,
2013-06-29 09:00:00,68.3,61.2,30.08,SW,234,1.0,2.0,78,0.00,,---,0.00,VWS V14.01,2013-06-29 16:00:00,
2013-06-29 09:02:00,68.3,61.2,30.08,SW,220,0.0,1.0,78,0.00,,---,0.00,VWS V14.01,2013-06-29 16:02:00,
2013-06-29 09:05:00,68.2,60.7,30.08,West,276,0.0,2.0,77,0.00,,---,0.00,VWS V14.01,2013-06-29 16:05:00,
2013-06-29 09:07:00,68.3,60.8,30.08,WNW,295,1.0,2.0,77,0.00,,---,0.00,VWS V14.01,2013-06-29 16:07:00,
2013-06-29 09:10:00,68.3,61.2,30.08,SW,233,0.0,2.0,78,0.00,,---,0.00,VWS V14.01,2013-06-29 16:10:00,
2013-06-29 09:12:00,68.4,61.3,30.08,SW,233,0.0,0.0,78,0.00,,---,0.00,VWS V14.01,2013-06-29 16:12:00,
2013-06-29 09:15:00,68.7,61.6,30.08,SW,231,0.0,1.0,78,0.00,,---,0.00,VWS V14.01,2013-06-29 16:15:00,
2013-06-29 09:17:00,68.8,61.7,30.08,SW,236,1.0,1.0,78,0.00,,---,0.00,VWS V14.01,2013-06-29 16:17:00,
2013-06-29 09:20:00,68.9,61.4,30.08,SW,228,1.0,3.0,77,0.00,,---,0.00,VWS V14.01,2013-06-29 16:20:00,
2013-06-29 09:22:00,68.9,61.4,30.08,WSW,252,1.0,2.0,77,0.00,,---,0.00,VWS V14.01,2013-06-29 16:22:00,
2013-06-29 09:25:00,69.0,60.8,30.08,WSW,245,1.0,3.0,75,0.00,,---,0.00,VWS V14.01,2013-06-29 16:25:00,
2013-06-29 09:27:00,69.0,60.8,30.08,West,262,1.0,2.0,75,0.00,,---,0.00,VWS V14.01,2013-06-29 16:27:00,
2013-06-29 09:30:00,69.2,61.3,30.08,SW,231,1.0,4.0,76,0.00,,---,0.00,VWS V14.01,2013-06-29 16:30:00,
2013-06-29 09:32:00,69.2,61.3,30.08,West,279,1.0,1.0,76,0.00,,---,0.00,VWS V14.01,2013-06-29 16:32:00,
2013-06-29 09:35:00,69.3,61.8,30.08,SW,219,0.0,2.0,77,0.00,,---,0.00,VWS V14.01,2013-06-29 16:35:00,
2013-06-29 09:37:00,69.4,61.9,30.07,West,272,1.0,1.0,77,0.00,,---,0.00,VWS V14.01,2013-06-29 16:37:00,
2013-06-29 09:40:00,69.3,61.4,30.08,WSW,246,0.0,3.0,76,0.00,,---,0.00,VWS V14.01,2013-06-29 16:40:00,
2013-06-29 09:42:00,69.3,61.4,30.08,WSW,252,1.0,3.0,76,0.00,,---,0.00,VWS V14.01,2013-06-29 16:42:00,
2013-06-29 09:45:00,69.2,61.3,30.08,WNW,290,1.0,5.0,76,0.00,,---,0.00,VWS V14.01,2013-06-29 16:45:00,
2013-06-29 09:47:00,69.3,61.4,30.07,WNW,290,0.0,1.0,76,0.00,,---,0.00,VWS V14.01,2013-06-29 16:47:00,
2013-06-29 09:50:00,69.4,61.5,30.07,WNW,296,2.0,5.0,76,0.00,,---,0.00,VWS V14.01,2013-06-29 16:50:00,
2013-06-29 09:52:00,69.4,61.5,30.07,WNW,285,0.0,2.0,76,0.00,,---,0.00,VWS V14.01,2013-06-29 16:52:00,
2013-06-29 09:55:00,69.9,61.6,30.07,SW,217,1.0,2.0,75,0.00,,---,0.00,VWS V14.01,2013-06-29 16:55:00,
2013-06-29 09:57:00,70.1,61.8,30.07,SW,226,0.0,1.0,75,0.00,,---,0.00,VWS V14.01,2013-06-29 16:57:00,
2013-06-29 10:00:00,70.9,61.8,30.07,SE,132,1.0,3.0,73,0.00,,---,0.00,VWS V14.01,2013-06-29 17:00:00,
2013-06-29 10:02:00,71.0,61.9,30.07,SE,131,0.0,1.0,73,0.00,,---,0.00,VWS V14.01,2013-06-29 17:02:00,
2013-06-29 10:05:00,71.6,62.1,30.07,WSW,241,0.0,3.0,72,0.00,,---,0.00,VWS V14.01,2013-06-29 17:05:00,
2013-06-29 10:07:00,71.7,61.8,30.07,WSW,241,0.0,0.0,71,0.00,,---,0.00,VWS V14.01,2013-06-29 17:07:00,
2013-06-29 10:10:00,72.2,62.3,30.07,South,184,0.0,2.0,71,0.00,,---,0.00,VWS V14.01,2013-06-29 17:10:00,
2013-06-29 10:12:00,72.4,62.5,30.07,South,184,0.0,0.0,71,0.00,,---,0.00,VWS V14.01,2013-06-29 17:12:00,
2013-06-29 10:15:00,72.4,62.1,30.07,WNW,295,1.0,3.0,70,0.00,,---,0.00,VWS V14.01,2013-06-29 17:15:00,
2013-06-29 10:17:00,72.4,62.1,30.07,SSW,204,0.0,1.0,70,0.00,,---,0.00,VWS V14.01,2013-06-29 17:17:00,
2013-06-29 10:20:00,72.8,62.5,30.07,SW,232,0.0,1.0,70,0.00,,---,0.00,VWS V14.01,2013-06-29 17:20:00,
2013-06-29 10:22:00,72.9,63.0,30.07,SW,228,3.0,3.0,71,0.00,,---,0.00,VWS V14.01,2013-06-29 17:22:00,
2013-06-29 10:25:00,72.6,61.9,30.08,South,187,1.0,4.0,69,0.00,,---,0.00,VWS V14.01,2013-06-29 17:25:00,
2013-06-29 10:27:00,72.6,62.3,30.08,SE,141,1.0,1.0,70,0.00,,---,0.00,VWS V14.01,2013-06-29 17:27:00,
2013-06-29 10:30:00,72.9,62.1,30.07,SE,130,2.0,4.0,69,0.00,,---,0.00,VWS V14.01,2013-06-29 17:30:00,
2013-06-29 10:32:00,72.9,61.3,30.07,SE,124,1.0,2.0,67,0.00,,---,0.00,VWS V14.01,2013-06-29 17:32:00,
2013-06-29 10:35:00,72.7,61.1,30.07,WSW,250,0.0,4.0,67,0.00,,---,0.00,VWS V14.01,2013-06-29 17:35:00,
2013-06-29 10:37:00,72.7,61.1,30.07,SSW,200,0.0,2.0,67,0.00,,---,0.00,VWS V14.01,2013-06-29 17:37:00,
2013-06-29 10:40:00,72.7,61.1,30.07,WNW,302,3.0,5.0,67,0.00,,---,0.00,VWS V14.01,2013-06-29 17:40:00,
2013-06-29 10:42:00,72.7,60.7,30.07,SW,230,2.0,3.0,66,0.00,,---,0.00,VWS V14.01,2013-06-29 17:42:00,
2013-06-29 10:45:00,72.7,61.1,30.07,South,172,0.0,3.0,67,0.00,,---,0.00,VWS V14.01,2013-06-29 17:45:00,
2013-06-29 10:47:00,72.7,61.1,30.07,SW,233,0.0,1.0,67,0.00,,---,0.00,VWS V14.01,2013-06-29 17:47:00,
2013-06-29 10:50:00,72.9,60.9,30.08,WSW,253,1.0,5.0,66,0.00,,---,0.00,VWS V14.01,2013-06-29 17:50:00,
2013-06-29 10:52:00,72.9,60.9,30.08,West,273,1.0,5.0,66,0.00,,---,0.00,VWS V14.01,2013-06-29 17:52:00,
2013-06-29 10:55:00,72.9,60.9,30.08,SW,224,2.0,5.0,66,0.00,,---,0.00,VWS V14.01,2013-06-29 17:55:00,
2013-06-29 10:57:00,73.0,60.5,30.08,SSE,159,4.0,4.0,65,0.00,,---,0.00,VWS V14.01,2013-06-29 17:57:00,
2013-06-29 11:00:00,73.5,60.6,30.08,West,273,2.0,5.0,64,0.00,,---,0.00,VWS V14.01,2013-06-29 18:00:00,
2013-06-29 11:02:00,73.5,61.0,30.08,WSW,240,3.0,3.0,65,0.00,,---,0.00,VWS V14.01,2013-06-29 18:02:00,
2013-06-29 11:05:00,73.7,61.2,30.08,NW,306,3.0,5.0,65,0.00,,---,0.00,VWS V14.01,2013-06-29 18:05:00,
2013-06-29 11:07:00,73.7,60.8,30.08,West,276,2.0,4.0,64,0.00,,---,0.00,VWS V14.01,2013-06-29 18:07:00,
2013-06-29 11:10:00,73.6,60.7,30.08,West,278,1.0,4.0,64,0.00,,---,0.00,VWS V14.01,2013-06-29 18:10:00,
2013-06-29 11:12:00,73.5,60.6,30.08,West,276,1.0,3.0,64,0.00,,---,0.00,VWS V14.01,2013-06-29 18:12:00,
2013-06-29 11:15:00,73.7,61.7,30.08,SSE,159,1.0,4.0,66,0.00,,---,0.00,VWS V14.01,2013-06-29 18:15:00,
2013-06-29 11:17:00,73.8,61.3,30.08,SW,222,1.0,2.0,65,0.00,,---,0.00,VWS V14.01,2013-06-29 18:17:00,
2013-06-29 11:20:00,74.4,61.0,30.08,West,275,1.0,3.0,63,0.00,,---,0.00,VWS V14.01,2013-06-29 18:20:00,
2013-06-29 11:22:00,74.4,61.0,30.08,West,276,1.0,1.0,63,0.00,,---,0.00,VWS V14.01,2013-06-29 18:22:00,
2013-06-29 11:25:00,74.4,61.0,30.08,WNW,296,1.0,5.0,63,0.00,,---,0.00,VWS V14.01,2013-06-29 18:25:00,
2013-06-29 11:27:00,74.3,60.5,30.08,WNW,283,1.0,1.0,62,0.00,,---,0.00,VWS V14.01,2013-06-29 18:27:00,
2013-06-29 11:30:00,73.9,61.0,30.08,SSE,159,1.0,2.0,64,0.00,,---,0.00,VWS V14.01,2013-06-29 18:30:00,
2013-06-29 11:32:00,73.9,61.0,30.09,WSW,243,0.0,1.0,64,0.00,,---,0.00,VWS V14.01,2013-06-29 18:32:00,
2013-06-29 11:35:00,73.9,61.0,30.08,NW,323,0.0,1.0,64,0.00,,---,0.00,VWS V14.01,2013-06-29 18:35:00,
2013-06-29 11:37:00,74.0,61.1,30.09,North,349,1.0,1.0,64,0.00,,---,0.00,VWS V14.01,2013-06-29 18:37:00,
2013-06-29 11:40:00,73.9,61.0,30.09,SE,132,2.0,2.0,64,0.00,,---,0.00,VWS V14.01,2013-06-29 18:40:00,
2013-06-29 11:42:00,73.8,60.4,30.08,SSW,192,1.0,2.0,63,0.00,,---,0.00,VWS V14.01,2013-06-29 18:42:00,
2013-06-29 11:45:00,73.5,60.6,30.08,SSE,147,1.0,3.0,64,0.00,,---,0.00,VWS V14.01,2013-06-29 18:45:00,
2013-06-29 11:47:00,73.5,60.6,30.08,South,176,1.0,2.0,64,0.00,,---,0.00,VWS V14.01,2013-06-29 18:47:00,
2013-06-29 11:50:00,73.7,60.8,30.08,WSW,238,2.0,4.0,64,0.00,,---,0.00,VWS V14.01,2013-06-29 18:50:00,
2013-06-29 11:52:00,73.7,60.8,30.08,WNW,288,2.0,2.0,64,0.00,,---,0.00,VWS V14.01,2013-06-29 18:52:00,
2013-06-29 11:55:00,73.8,61.3,30.08,SW,231,0.0,4.0,65,0.00,,---,0.00,VWS V14.01,2013-06-29 18:55:00,
2013-06-29 11:57:00,73.8,61.3,30.09,WSW,257,2.0,4.0,65,0.00,,---,0.00,VWS V14.01,2013-06-29 18:57:00,
2013-06-29 12:00:00,74.0,61.5,30.08,WSW,253,3.0,4.0,65,0.00,,---,0.00,VWS V14.01,2013-06-29 19:00:00,
2013-06-29 12:02:00,74.0,61.1,30.08,West,271,1.0,3.0,64,0.00,,---,0.00,VWS V14.01,2013-06-29 19:02:00,
2013-06-29 12:05:00,74.4,61.4,30.08,SSE,152,0.0,4.0,64,0.00,,---,0.00,VWS V14.01,2013-06-29 19:05:00,
2013-06-29 12:07:00,74.4,61.4,30.08,SSE,161,2.0,3.0,64,0.00,,---,0.00,VWS V14.01,2013-06-29 19:07:00,
2013-06-29 12:10:00,74.9,61.9,30.08,SW,219,2.0,3.0,64,0.00,,---,0.00,VWS V14.01,2013-06-29 19:10:00,
2013-06-29 12:12:00,75.0,62.0,30.08,WSW,244,0.0,2.0,64,0.00,,---,0.00,VWS V14.01,2013-06-29 19:12:00,
2013-06-29 12:15:00,75.3,61.4,30.08,SW,233,1.0,4.0,62,0.00,,---,0.00,VWS V14.01,2013-06-29 19:15:00,
2013-06-29 12:17:00,75.3,61.4,30.08,SW,223,2.0,2.0,62,0.00,,---,0.00,VWS V14.01,2013-06-29 19:17:00,
2013-06-29 12:20:00,75.3,62.7,30.08,WSW,248,1.0,4.0,65,0.00,,---,0.00,VWS V14.01,2013-06-29 19:20:00,
2013-06-29 12:22:00,75.3,62.3,30.08,WSW,248,0.0,1.0,64,0.00,,---,0.00,VWS V14.01,2013-06-29 19:22:00,
2013-06-29 12:25:00,76.1,62.2,30.08,SE,139,2.0,3.0,62,0.00,,---,0.00,VWS V14.01,2013-06-29 19:25:00,
2013-06-29 12:27:00,76.2,62.2,30.08,SE,126,1.0,2.0,62,0.00,,---,0.00,VWS V14.01,2013-06-29 19:27:00,
2013-06-29 12:30:00,76.8,62.8,30.08,WSW,244,1.0,2.0,62,0.00,,---,0.00,VWS V14.01,2013-06-29 19:30:00,
2013-06-29 12:32:00,76.8,62.8,30.08,West,271,2.0,2.0,62,0.00,,---,0.00,VWS V14.01,2013-06-29 19:32:00,
2013-06-29 12:35:00,77.1,62.2,30.08,WSW,246,1.0,2.0,60,0.00,,---,0.00,VWS V14.01,2013-06-29 19:35:00,
2013-06-29 12:37:00,77.1,62.2,30.08,WSW,240,1.0,2.0,60,0.00,,---,0.00,VWS V14.01,2013-06-29 19:37:00,
2013-06-29 12:40:00,76.5,61.1,30.08,WNW,285,0.0,7.0,59,0.00,,---,0.00,VWS V14.01,2013-06-29 19:40:00,
2013-06-29 12:42:00,76.6,62.6,30.08,WNW,285,0.0,0.0,62,0.00,,---,0.00,VWS V14.01,2013-06-29 19:42:00,
2013-06-29 12:45:00,77.2,62.2,30.08,SE,127,1.0,3.0,60,0.00,,---,0.00,VWS V14.01,2013-06-29 19:45:00,
2013-06-29 12:47:00,77.4,62.0,30.08,SE,127,0.0,1.0,59,0.00,,---,0.00,VWS V14.01,2013-06-29 19:47:00,
2013-06-29 12:50:00,77.7,62.2,30.07,NW,316,2.0,4.0,59,0.00,,---,0.00,VWS V14.01,2013-06-29 19:50:00,
2013-06-29 12:52:00,77.7,61.8,30.08,NW,304,1.0,2.0,58,0.00,,---,0.00,VWS V14.01,2013-06-29 19:52:00,
2013-06-29 12:55:00,77.6,61.7,30.08,SW,233,0.0,3.0,58,0.00,,---,0.00,VWS V14.01,2013-06-29 19:55:00,
2013-06-29 12:57:00,77.6,61.7,30.07,SW,236,0.0,0.0,58,0.00,,---,0.00,VWS V14.01,2013-06-29 19:57:00,
2013-06-29 13:00:00,78.2,63.2,30.07,SE,141,1.0,2.0,60,0.00,,---,0.00,VWS V14.01,2013-06-29 20:00:00,
2013-06-29 13:02:00,78.3,63.3,30.07,SSE,149,0.0,1.0,60,0.00,,---,0.00,VWS V14.01,2013-06-29 20:02:00,
2013-06-29 13:05:00,78.4,62.9,30.07,West,267,1.0,3.0,59,0.00,,---,0.00,VWS V14.01,2013-06-29 20:05:00,
2013-06-29 13:07:00,78.4,62.9,30.07,West,268,0.0,1.0,59,0.00,,---,0.00,VWS V14.01,2013-06-29 20:07:00,
2013-06-29 13:10:00,78.8,63.3,30.07,SW,222,0.0,3.0,59,0.00,,---,0.00,VWS V14.01,2013-06-29 20:10:00,
2013-06-29 13:12:00,78.8,63.3,30.07,West,271,1.0,1.0,59,0.00,,---,0.00,VWS V14.01,2013-06-29 20:12:00,
2013-06-29 13:15:00,78.5,63.5,30.06,WNW,300,3.0,6.0,60,0.00,,---,0.00,VWS V14.01,2013-06-29 20:15:00,
2013-06-29 13:17:00,78.5,63.0,30.06,NW,316,1.0,3.0,59,0.00,,---,0.00,VWS V14.01,2013-06-29 20:17:00,
2013-06-29 13:20:00,78.7,63.2,30.06,SSE,159,2.0,3.0,59,0.00,,---,0.00,VWS V14.01,2013-06-29 20:20:00,
2013-06-29 13:22:00,78.8,62.8,30.06,SE,145,1.0,3.0,58,0.00,,---,0.00,VWS V14.01,2013-06-29 20:22:00,
2013-06-29 13:25:00,79.6,64.0,30.06,SSE,158,1.0,3.0,59,0.00,,---,0.00,VWS V14.01,2013-06-29 20:25:00,
2013-06-29 13:27:00,79.7,63.6,30.06,SE,125,1.0,2.0,58,0.00,,---,0.00,VWS V14.01,2013-06-29 20:27:00,
2013-06-29 13:30:00,80.3,63.7,30.06,ESE,121,1.0,2.0,57,0.00,,---,0.00,VWS V14.01,2013-06-29 20:30:00,
2013-06-29 13:32:00,80.3,63.7,30.06,ESE,110,3.0,3.0,57,0.00,,---,0.00,VWS V14.01,2013-06-29 20:32:00,
2013-06-29 13:35:00,80.0,63.9,30.06,SE,134,1.0,5.0,58,0.00,,---,0.00,VWS V14.01,2013-06-29 20:35:00,
2013-06-29 13:37:00,80.1,64.0,30.06,SE,136,1.0,1.0,58,0.00,,---,0.00,VWS V14.01,2013-06-29 20:37:00,
2013-06-29 13:40:00,80.7,64.1,30.06,SSE,152,1.0,1.0,57,0.00,,---,0.00,VWS V14.01,2013-06-29 20:40:00,
2013-06-29 13:42:00,80.7,64.1,30.06,WSW,248,2.0,2.0,57,0.00,,---,0.00,VWS V14.01,2013-06-29 20:42:00,
2013-06-29 13:45:00,80.4,64.3,30.06,NW,317,3.0,5.0,58,0.00,,---,0.00,VWS V14.01,2013-06-29 20:45:00,
2013-06-29 13:47:00,80.4,63.8,30.06,NW,308,4.0,5.0,57,0.00,,---,0.00,VWS V14.01,2013-06-29 20:47:00,
2013-06-29 13:50:00,80.2,64.1,30.06,SSW,212,2.0,5.0,58,0.00,,---,0.00,VWS V14.01,2013-06-29 20:50:00,
2013-06-29 13:52:00,80.2,63.6,30.06,SW,225,1.0,2.0,57,0.00,,---,0.00,VWS V14.01,2013-06-29 20:52:00,
2013-06-29 13:55:00,79.9,63.3,30.06,West,278,1.0,5.0,57,0.00,,---,0.00,VWS V14.01,2013-06-29 20:55:00,
2013-06-29 13:57:00,80.0,63.4,30.05,West,268,2.0,3.0,57,0.00,,---,0.00,VWS V14.01,2013-06-29 20:57:00,
2013-06-29 14:00:00,80.2,63.6,30.05,WSW,255,0.0,6.0,57,0.00,,---,0.00,VWS V14.01,2013-06-29 21:00:00,
2013-06-29 14:02:00,80.3,64.7,30.05,WSW,250,0.0,0.0,59,0.00,,---,0.00,VWS V14.01,2013-06-29 21:02:00,
2013-06-29 14:05:00,80.6,63.5,30.05,WNW,293,3.0,9.0,56,0.00,,---,0.00,VWS V14.01,2013-06-29 21:05:00,
2013-06-29 14:07:00,80.5,63.4,30.05,West,281,5.0,7.0,56,0.00,,---,0.00,VWS V14.01,2013-06-29 21:07:00,
2013-06-29 14:10:00,79.7,62.6,30.05,NW,311,1.0,7.0,56,0.00,,---,0.00,VWS V14.01,2013-06-29 21:10:00,
2013-06-29 14:12:00,79.7,62.6,30.05,WNW,296,5.0,7.0,56,0.00,,---,0.00,VWS V14.01,2013-06-29 21:12:00,
2013-06-29 14:15:00,80.1,64.0,30.05,WNW,302,2.0,7.0,58,0.00,,---,0.00,VWS V14.01,2013-06-29 21:15:00,
2013-06-29 14:17:00,80.1,64.0,30.05,NNW,328,1.0,3.0,58,0.00,,---,0.00,VWS V14.01,2013-06-29 21:17:00,
2013-06-29 14:20:00,81.0,63.8,30.05,NW,326,4.0,7.0,56,0.00,,---,0.00,VWS V14.01,2013-06-29 21:20:00,
2013-06-29 14:22:00,80.9,64.8,30.04,WNW,293,5.0,5.0,58,0.00,,---,0.00,VWS V14.01,2013-06-29 21:22:00,
2013-06-29 14:25:00,80.3,64.2,30.04,WNW,288,2.0,7.0,58,0.00,,---,0.00,VWS V14.01,2013-06-29 21:25:00,
2013-06-29 14:27:00,80.2,64.1,30.04,WNW,302,8.0,8.0,58,0.00,,---,0.00,VWS V14.01,2013-06-29 21:27:00,
2013-06-29 14:30:00,79.8,63.7,30.04,NNW,330,2.0,8.0,58,0.00,,---,0.00,VWS V14.01,2013-06-29 21:30:00,
2013-06-29 14:32:00,79.8,64.2,30.04,NNW,341,2.0,4.0,59,0.00,,---,0.00,VWS V14.01,2013-06-29 21:32:00,
2013-06-29 14:35:00,80.7,65.1,30.04,SW,231,2.0,4.0,59,0.00,,---,0.00,VWS V14.01,2013-06-29 21:35:00,
2013-06-29 14:37:00,80.7,65.1,30.04,WSW,241,2.0,2.0,59,0.00,,---,0.00,VWS V14.01,2013-06-29 21:37:00,
2013-06-29 14:40:00,81.5,64.3,30.04,North,354,2.0,3.0,56,0.00,,---,0.00,VWS V14.01,2013-06-29 21:40:00,
2013-06-29 14:42:00,81.6,64.4,30.04,North,354,1.0,2.0,56,0.00,,---,0.00,VWS V14.01,2013-06-29 21:42:00,
2013-06-29 14:45:00,82.2,65.0,30.03,WNW,293,2.0,6.0,56,0.00,,---,0.00,VWS V14.01,2013-06-29 21:45:00,
2013-06-29 14:47:00,82.2,65.0,30.03,WNW,290,1.0,2.0,56,0.00,,---,0.00,VWS V14.01,2013-06-29 21:47:00,
2013-06-29 14:50:00,81.6,63.9,30.03,WNW,291,2.0,5.0,55,0.00,,---,0.00,VWS V14.01,2013-06-29 21:50:00,
2013-06-29 14:52:00,81.6,63.4,30.03,WNW,291,1.0,2.0,54,0.00,,---,0.00,VWS V14.01,2013-06-29 21:52:00,
2013-06-29 14:55:00,81.1,63.9,30.03,West,270,0.0,6.0,56,0.00,,---,0.00,VWS V14.01,2013-06-29 21:55:00,
2013-06-29 14:57:00,81.2,66.0,30.03,WNW,290,1.0,1.0,60,0.00,,---,0.00,VWS V14.01,2013-06-29 21:57:00,
2013-06-29 15:00:00,82.3,65.1,30.03,SW,226,0.0,5.0,56,0.00,,---,0.00,VWS V14.01,2013-06-29 22:00:00,
2013-06-29 15:02:00,82.3,65.6,30.03,WSW,245,2.0,2.0,57,0.00,,---,0.00,VWS V14.01,2013-06-29 22:02:00,
2013-06-29 15:05:00,82.4,64.1,30.03,WNW,291,6.0,8.0,54,0.00,,---,0.00,VWS V14.01,2013-06-29 22:05:00,
2013-06-29 15:07:00,82.3,64.0,30.03,WNW,302,3.0,6.0,54,0.00,,---,0.00,VWS V14.01,2013-06-29 22:07:00,
2013-06-29 15:10:00,81.7,62.9,30.03,WNW,285,6.0,6.0,53,0.00,,---,0.00,VWS V14.01,2013-06-29 22:10:00,
2013-06-29 15:12:00,81.6,62.8,30.03,NW,309,3.0,6.0,53,0.00,,---,0.00,VWS V14.01,2013-06-29 22:12:00,
2013-06-29 15:15:00,81.2,63.5,30.03,NW,307,1.0,7.0,55,0.00,,---,0.00,VWS V14.01,2013-06-29 22:15:00,
2013-06-29 15:17:00,81.2,63.5,30.03,NW,311,1.0,2.0,55,0.00,,---,0.00,VWS V14.01,2013-06-29 22:17:00,
2013-06-29 15:20:00,80.9,63.8,30.03,WNW,284,3.0,7.0,56,0.00,,---,0.00,VWS V14.01,2013-06-29 22:20:00,
2013-06-29 15:22:00,80.8,63.7,30.03,NW,307,3.0,5.0,56,0.00,,---,0.00,VWS V14.01,2013-06-29 22:22:00,
2013-06-29 15:25:00,81.2,64.5,30.03,SE,143,2.0,5.0,57,0.00,,---,0.00,VWS V14.01,2013-06-29 22:25:00,
2013-06-29 15:27:00,81.3,64.1,30.03,SE,143,1.0,2.0,56,0.00,,---,0.00,VWS V14.01,2013-06-29 22:27:00,
2013-06-29 15:30:00,81.8,63.5,30.03,West,278,3.0,4.0,54,0.00,,---,0.00,VWS V14.01,2013-06-29 22:30:00,
2013-06-29 15:32:00,81.8,64.1,30.03,NW,319,2.0,3.0,55,0.00,,---,0.00,VWS V14.01,2013-06-29 22:32:00,
2013-06-29 15:35:00,82.0,64.3,30.03,ESE,122,1.0,5.0,55,0.00,,---,0.00,VWS V14.01,2013-06-29 22:35:00,
2013-06-29 15:37:00,82.0,64.3,30.03,SW,220,1.0,2.0,55,0.00,,---,0.00,VWS V14.01,2013-06-29 22:37:00,
2013-06-29 15:40:00,82.0,63.2,30.02,WSW,237,1.0,5.0,53,0.00,,---,0.00,VWS V14.01,2013-06-29 22:40:00,
2013-06-29 15:42:00,81.9,63.1,30.02,SE,127,1.0,1.0,53,0.00,,---,0.00,VWS V14.01,2013-06-29 22:42:00,
2013-06-29 15:45:00,82.2,64.4,30.02,West,268,2.0,5.0,55,0.00,,---,0.00,VWS V14.01,2013-06-29 22:45:00,
2013-06-29 15:47:00,82.3,64.5,30.02,WSW,248,2.0,2.0,55,0.00,,---,0.00,VWS V14.01,2013-06-29 22:47:00,
2013-06-29 15:50:00,82.0,62.7,30.02,SSW,205,1.0,7.0,52,0.00,,---,0.00,VWS V14.01,2013-06-29 22:50:00,
2013-06-29 15:52:00,82.0,62.7,30.02,SSW,205,0.0,1.0,52,0.00,,---,0.00,VWS V14.01,2013-06-29 22:52:00,
2013-06-29 15:55:00,82.2,63.9,30.02,West,276,4.0,6.0,54,0.00,,---,0.00,VWS V14.01,2013-06-29 22:55:00,
2013-06-29 15:57:00,82.2,63.9,30.02,WNW,293,5.0,5.0,54,0.00,,---,0.00,VWS V14.01,2013-06-29 22:57:00,
2013-06-29 16:00:00,82.1,64.3,30.02,WNW,302,4.0,5.0,55,0.00,,---,0.00,VWS V14.01,2013-06-29 23:00:00,
2013-06-29 16:02:00,82.0,64.3,30.02,WNW,297,4.0,5.0,55,0.00,,---,0.00,VWS V14.01,2013-06-29 23:02:00,
2013-06-29 16:05:00,81.6,63.4,30.02,West,276,2.0,6.0,54,0.00,,---,0.00,VWS V14.01,2013-06-29 23:05:00,
2013-06-29 16:07:00,81.6,64.4,30.02,West,260,2.0,3.0,56,0.00,,---,0.00,VWS V14.01,2013-06-29 23:07:00,
2013-06-29 16:10:00,81.9,64.2,30.02,WSW,257,3.0,7.0,55,0.00,,---,0.00,VWS V14.01,2013-06-29 23:10:00,
2013-06-29 16:12:00,81.9,64.2,30.02,West,280,3.0,3.0,55,0.00,,---,0.00,VWS V14.01,2013-06-29 23:12:00,
2013-06-29 16:15:00,81.1,63.4,30.02,WNW,292,4.0,8.0,55,0.00,,---,0.00,VWS V14.01,2013-06-29 23:15:00,
2013-06-29 16:17:00,81.1,63.4,30.02,West,271,2.0,4.0,55,0.00,,---,0.00,VWS V14.01,2013-06-29 23:17:00,
2013-06-29 16:20:00,81.2,64.0,30.01,WSW,240,1.0,6.0,56,0.00,,---,0.00,VWS V14.01,2013-06-29 23:20:00,
2013-06-29 16:22:00,81.3,64.1,30.02,West,281,4.0,5.0,56,0.00,,---,0.00,VWS V14.01,2013-06-29 23:22:00,
2013-06-29 16:25:00,81.9,64.2,30.02,NW,316,4.0,5.0,55,0.00,,---,0.00,VWS V14.01,2013-06-29 23:25:00,
2013-06-29 16:27:00,81.9,64.2,30.01,WNW,300,2.0,4.0,55,0.00,,---,0.00,VWS V14.01,2013-06-29 23:27:00,
2013-06-29 16:30:00,81.4,63.2,30.01,WNW,295,4.0,7.0,54,0.00,,---,0.00,VWS V14.01,2013-06-29 23:30:00,
2013-06-29 16:32:00,81.4,63.2,30.01,WNW,292,6.0,6.0,54,0.00,,---,0.00,VWS V14.01,2013-06-29 23:32:00,
2013-06-29 16:35:00,81.0,63.3,30.01,NW,318,4.0,7.0,55,0.00,,---,0.00,VWS V14.01,2013-06-29 23:35:00,
2013-06-29 16:37:00,81.0,63.8,30.01,NW,308,2.0,4.0,56,0.00,,---,0.00,VWS V14.01,2013-06-29 23:37:00,
2013-06-29 16:40:00,80.9,63.8,30.01,NW,324,3.0,9.0,56,0.00,,---,0.00,VWS V14.01,2013-06-29 23:40:00,
2013-06-29 16:42:00,80.9,63.8,30.01,NNW,338,4.0,4.0,56,0.00,,---,0.00,VWS V14.01,2013-06-29 23:42:00,
2013-06-29 16:45:00,81.5,63.8,30.01,WNW,297,2.0,5.0,55,0.00,,---,0.00,VWS V14.01,2013-06-29 23:45:00,
2013-06-29 16:47:00,81.5,63.8,30.01,NW,323,4.0,5.0,55,0.00,,---,0.00,VWS V14.01,2013-06-29 23:47:00,
2013-06-29 16:50:00,81.3,63.1,30.01,WNW,288,2.0,7.0,54,0.00,,---,0.00,VWS V14.01,2013-06-29 23:50:00,
2013-06-29 16:52:00,81.3,63.1,30.01,West,267,1.0,2.0,54,0.00,,---,0.00,VWS V14.01,2013-06-29 23:52:00,
2013-06-29 16:55:00,81.1,63.4,30.01,SW,231,4.0,7.0,55,0.00,,---,0.00,VWS V14.01,2013-06-29 23:55:00,
2013-06-29 16:57:00,81.0,63.3,30.01,WNW,284,5.0,5.0,55,0.00,,---,0.00,VWS V14.01,2013-06-29 23:57:00,
2013-06-29 17:00:00,81.2,64.0,30.01,NW,304,3.0,7.0,56,0.00,,---,0.00,VWS V14.01,2013-06-30 00:00:00,
2013-06-29 17:02:00,81.1,63.9,30.01,NW,304,2.0,5.0,56,0.00,,---,0.00,VWS V14.01,2013-06-30 00:02:00,
2013-06-29 17:05:00,81.6,63.4,30.01,WNW,285,3.0,8.0,54,0.00,,---,0.00,VWS V14.01,2013-06-30 00:05:00,
2013-06-29 17:07:00,81.6,63.4,30.01,NW,323,3.0,3.0,54,0.00,,---,0.00,VWS V14.01,2013-06-30 00:07:00,
2013-06-29 17:10:00,81.7,64.0,30.01,WNW,286,3.0,7.0,55,0.00,,---,0.00,VWS V14.01,2013-06-30 00:10:00,
2013-06-29 17:12:00,81.7,63.5,30.01,West,279,2.0,3.0,54,0.00,,---,0.00,VWS V14.01,2013-06-30 00:12:00,
2013-06-29 17:15:00,81.3,63.6,30.00,WNW,302,2.0,7.0,55,0.00,,---,0.00,VWS V14.01,2013-06-30 00:15:00,
2013-06-29 17:16:00,81.3,63.1,30.00,NW,304,2.0,3.0,54,0.00,,---,0.00,VWS V14.01,2013-06-30 00:16:00,
2013-06-29 17:20:00,81.3,63.6,30.00,WNW,292,4.0,8.0,55,0.00,,---,0.00,VWS V14.01,2013-06-30 00:20:00,
2013-06-29 17:21:00,81.3,63.6,30.00,NW,321,3.0,4.0,55,0.00,,---,0.00,VWS V14.01,2013-06-30 00:21:00,
2013-06-29 17:25:00,81.5,63.8,30.00,WNW,285,2.0,7.0,55,0.00,,---,0.00,VWS V14.01,2013-06-30 00:25:00,
2013-06-29 17:26:00,81.5,63.8,30.00,NW,311,4.0,4.0,55,0.00,,---,0.00,VWS V14.01,2013-06-30 00:26:00,
2013-06-29 17:30:00,81.6,63.9,30.00,NW,312,4.0,6.0,55,0.00,,---,0.00,VWS V14.01,2013-06-30 00:30:00,
2013-06-29 17:31:00,81.7,64.0,30.00,WNW,294,5.0,5.0,55,0.00,,---,0.00,VWS V14.01,2013-06-30 00:31:00,
2013-06-29 17:35:00,81.1,63.4,30.00,NW,319,4.0,8.0,55,0.00,,---,0.00,VWS V14.01,2013-06-30 00:35:00,
2013-06-29 17:36:00,81.1,63.4,30.00,WNW,293,5.0,5.0,55,0.00,,---,0.00,VWS V14.01,2013-06-30 00:36:00,
2013-06-29 17:40:00,80.5,63.4,30.00,WNW,295,2.0,9.0,56,0.00,,---,0.00,VWS V14.01,2013-06-30 00:40:00,
2013-06-29 17:41:00,80.5,63.4,30.00,NW,304,4.0,4.0,56,0.00,,---,0.00,VWS V14.01,2013-06-30 00:41:00,
2013-06-29 17:45:00,80.4,63.3,30.00,NW,309,4.0,6.0,56,0.00,,---,0.00,VWS V14.01,2013-06-30 00:45:00,
2013-06-29 17:46:00,80.4,63.3,30.00,NNW,341,3.0,4.0,56,0.00,,---,0.00,VWS V14.01,2013-06-30 00:46:00,
2013-06-29 17:50:00,80.8,63.1,30.00,WNW,283,4.0,7.0,55,0.00,,---,0.00,VWS V14.01,2013-06-30 00:50:00,
2013-06-29 17:51:00,80.8,63.1,30.00,West,281,5.0,6.0,55,0.00,,---,0.00,VWS V14.01,2013-06-30 00:51:00,
2013-06-29 17:55:00,80.8,63.1,30.00,WNW,292,4.0,7.0,55,0.00,,---,0.00,VWS V14.01,2013-06-30 00:55:00,
2013-06-29 17:56:00,80.7,63.0,30.00,WNW,294,4.0,4.0,55,0.00,,---,0.00,VWS V14.01,2013-06-30 00:56:00,
2013-06-29 18:00:00,80.6,63.0,29.99,NW,308,4.0,7.0,55,0.00,,---,0.00,VWS V14.01,2013-06-30 01:00:00,
2013-06-29 18:01:00,80.6,63.0,30.00,WNW,297,5.0,5.0,55,0.00,,---,0.00,VWS V14.01,2013-06-30 01:01:00,
2013-06-29 18:05:00,80.4,63.8,29.99,NW,314,3.0,8.0,57,0.00,,---,0.00,VWS V14.01,2013-06-30 01:05:00,
2013-06-29 18:06:00,80.4,63.8,29.99,WNW,300,4.0,5.0,57,0.00,,---,0.00,VWS V14.01,2013-06-30 01:06:00,
2013-06-29 18:10:00,80.2,62.6,29.99,NNW,327,5.0,8.0,55,0.00,,---,0.00,VWS V14.01,2013-06-30 01:10:00,
2013-06-29 18:11:00,80.2,62.6,29.99,NW,320,4.0,6.0,55,0.00,,---,0.00,VWS V14.01,2013-06-30 01:11:00,
2013-06-29 18:15:00,80.2,63.1,29.99,West,278,5.0,6.0,56,0.00,,---,0.00,VWS V14.01,2013-06-30 01:15:00,
2013-06-29 18:16:00,80.2,63.1,29.99,WNW,298,6.0,6.0,56,0.00,,---,0.00,VWS V14.01,2013-06-30 01:16:00,
2013-06-29 18:20:00,79.9,62.8,29.99,WNW,284,6.0,8.0,56,0.00,,---,0.00,VWS V14.01,2013-06-30 01:20:00,
2013-06-29 18:21:00,79.9,62.8,30.00,WNW,293,5.0,6.0,56,0.00,,---,0.00,VWS V14.01,2013-06-30 01:21:00,
2013-06-29 18:25:00,79.6,63.0,29.99,WNW,303,6.0,8.0,57,0.00,,---,0.00,VWS V14.01,2013-06-30 01:25:00,
2013-06-29 18:26:00,79.6,63.0,30.00,WNW,292,5.0,6.0,57,0.00,,---,0.00,VWS V14.01,2013-06-30 01:26:00,
2013-06-29 18:30:00,79.6,62.5,30.00,NW,314,4.0,6.0,56,0.00,,---,0.00,VWS V14.01,2013-06-30 01:30:00,
2013-06-29 18:31:00,79.5,62.5,29.99,WNW,297,6.0,6.0,56,0.00,,---,0.00,VWS V14.01,2013-06-30 01:31:00,
2013-06-29 18:35:00,79.3,62.8,29.99,West,276,3.0,8.0,57,0.00,,---,0.00,VWS V14.01,2013-06-30 01:35:00,
2013-06-29 18:36:00,79.3,62.8,29.99,WNW,282,4.0,4.0,57,0.00,,---,0.00,VWS V14.01,2013-06-30 01:36:00,
2013-06-29 18:40:00,79.3,62.3,29.99,NNW,329,2.0,7.0,56,0.00,,---,0.00,VWS V14.01,2013-06-30 01:40:00,
2013-06-29 18:41:00,79.3,62.3,29.99,WNW,299,4.0,4.0,56,0.00,,---,0.00,VWS V14.01,2013-06-30 01:41:00,
2013-06-29 18:45:00,79.4,62.3,29.99,NNW,328,4.0,6.0,56,0.00,,---,0.00,VWS V14.01,2013-06-30 01:45:00,
2013-06-29 18:46:00,79.4,62.3,29.99,NW,316,5.0,5.0,56,0.00,,---,0.00,VWS V14.01,2013-06-30 01:46:00,
2013-06-29 18:50:00,79.2,62.2,29.99,West,273,3.0,7.0,56,0.00,,---,0.00,VWS V14.01,2013-06-30 01:50:00,
2013-06-29 18:51:00,79.2,62.7,29.99,NW,324,3.0,3.0,57,0.00,,---,0.00,VWS V14.01,2013-06-30 01:51:00,
2013-06-29 18:55:00,79.0,62.5,29.99,NNE,23,1.0,9.0,57,0.00,,---,0.00,VWS V14.01,2013-06-30 01:55:00,
2013-06-29 18:56:00,79.0,62.5,29.99,West,279,1.0,1.0,57,0.00,,---,0.00,VWS V14.01,2013-06-30 01:56:00,
2013-06-29 19:00:00,79.0,62.0,29.99,ENE,64,2.0,10.0,56,0.00,,---,0.00,VWS V14.01,2013-06-30 02:00:00,
2013-06-29 19:01:00,78.9,61.9,29.99,North,355,2.0,2.0,56,0.00,,---,0.00,VWS V14.01,2013-06-30 02:01:00,
2013-06-29 19:05:00,78.2,61.7,29.99,NNW,345,2.0,10.0,57,0.00,,---,0.00,VWS V14.01,2013-06-30 02:05:00,
2013-06-29 19:06:00,78.2,61.7,29.99,NW,314,2.0,2.0,57,0.00,,---,0.00,VWS V14.01,2013-06-30 02:06:00,
2013-06-29 19:10:00,77.4,61.5,29.99,NW,326,3.0,8.0,58,0.00,,---,0.00,VWS V14.01,2013-06-30 02:10:00,
2013-06-29 19:11:00,77.4,61.5,29.99,NW,326,3.0,3.0,58,0.00,,---,0.00,VWS V14.01,2013-06-30 02:11:00,
2013-06-29 19:15:00,77.4,61.5,29.99,WNW,295,2.0,7.0,58,0.00,,---,0.00,VWS V14.01,2013-06-30 02:15:00,
2013-06-29 19:16:00,77.4,61.5,29.99,WNW,294,3.0,3.0,58,0.00,,---,0.00,VWS V14.01,2013-06-30 02:16:00,
2013-06-29 19:20:00,76.8,61.4,29.99,NNE,17,2.0,8.0,59,0.00,,---,0.00,VWS V14.01,2013-06-30 02:20:00,
2013-06-29 19:21:00,76.7,61.3,29.99,North,4,2.0,3.0,59,0.00,,---,0.00,VWS V14.01,2013-06-30 02:21:00,
2013-06-29 19:25:00,76.4,61.0,29.99,NW,314,9.0,9.0,59,0.00,,---,0.00,VWS V14.01,2013-06-30 02:25:00,
2013-06-29 19:26:00,76.3,60.9,29.99,WNW,289,6.0,9.0,59,0.00,,---,0.00,VWS V14.01,2013-06-30 02:26:00,
2013-06-29 19:30:00,75.9,61.0,29.99,NW,311,5.0,9.0,60,0.00,,---,0.00,VWS V14.01,2013-06-30 02:30:00,
2013-06-29 19:31:00,75.9,61.0,29.99,West,274,6.0,6.0,60,0.00,,---,0.00,VWS V14.01,2013-06-30 02:31:00,
2013-06-29 19:35:00,76.0,61.6,29.99,North,350,1.0,7.0,61,0.00,,---,0.00,VWS V14.01,2013-06-30 02:35:00,
2013-06-29 19:36:00,76.1,61.7,29.99,North,349,1.0,1.0,61,0.00,,---,0.00,VWS V14.01,2013-06-30 02:36:00,
2013-06-29 19:40:00,76.3,61.4,29.99,NNE,14,4.0,8.0,60,0.00,,---,0.00,VWS V14.01,2013-06-30 02:40:00,
2013-06-29 19:41:00,76.3,61.4,29.99,West,269,2.0,4.0,60,0.00,,---,0.00,VWS V14.01,2013-06-30 02:41:00,
2013-06-29 19:45:00,76.2,61.8,29.99,NNW,330,3.0,5.0,61,0.00,,---,0.00,VWS V14.01,2013-06-30 02:45:00,
2013-06-29 19:46:00,76.2,61.8,29.99,West,281,4.0,4.0,61,0.00,,---,0.00,VWS V14.01,2013-06-30 02:46:00,
2013-06-29 19:50:00,75.8,60.9,29.98,NW,324,5.0,8.0,60,0.00,,---,0.00,VWS V14.01,2013-06-30 02:50:00,
2013-06-29 19:51:00,75.8,60.9,29.98,NW,304,3.0,5.0,60,0.00,,---,0.00,VWS V14.01,2013-06-30 02:51:00,
2013-06-29 19:55:00,75.5,61.1,29.99,NW,321,5.0,5.0,61,0.00,,---,0.00,VWS V14.01,2013-06-30 02:55:00,
2013-06-29 19:56:00,75.5,61.1,29.98,NW,304,5.0,5.0,61,0.00,,---,0.00,VWS V14.01,2013-06-30 02:56:00,
2013-06-29 20:00:00,74.9,61.0,29.99,NW,319,5.0,7.0,62,0.00,,---,0.00,VWS V14.01,2013-06-30 03:00:00,
2013-06-29 20:01:00,74.8,60.9,29.99,NNW,328,7.0,7.0,62,0.00,,---,0.00,VWS V14.01,2013-06-30 03:01:00,
2013-06-29 20:05:00,74.4,61.0,29.99,NW,321,4.0,7.0,63,0.00,,---,0.00,VWS V14.01,2013-06-30 03:05:00,
2013-06-29 20:06:00,74.4,61.0,29.99,NE,56,3.0,4.0,63,0.00,,---,0.00,VWS V14.01,2013-06-30 03:06:00,
2013-06-29 20:10:00,74.5,60.6,29.99,NW,309,5.0,9.0,62,0.00,,---,0.00,VWS V14.01,2013-06-30 03:10:00,
2013-06-29 20:11:00,74.5,60.6,29.99,NW,309,5.0,9.0,62,0.00,,---,0.00,VWS V14.01,2013-06-30 03:11:00,
2013-06-29 20:15:00,73.9,60.5,29.99,NNW,330,5.0,6.0,63,0.00,,---,0.00,VWS V14.01,2013-06-30 03:15:00,
2013-06-29 20:16:00,73.9,60.5,29.99,NNW,330,5.0,6.0,63,0.00,,---,0.00,VWS V14.01,2013-06-30 03:16:00,
2013-06-29 20:20:00,73.8,60.4,29.99,North,350,1.0,7.0,63,0.00,,---,0.00,VWS V14.01,2013-06-30 03:20:00,
2013-06-29 20:21:00,73.8,60.4,29.99,North,350,1.0,7.0,63,0.00,,---,0.00,VWS V14.01,2013-06-30 03:21:00,
2013-06-29 20:25:00,73.7,60.8,29.99,NNW,339,1.0,6.0,64,0.00,,---,0.00,VWS V14.01,2013-06-30 03:25:00,
2013-06-29 20:26:00,73.7,60.8,29.99,NNW,339,1.0,6.0,64,0.00,,---,0.00,VWS V14.01,2013-06-30 03:26:00,
2013-06-29 20:30:00,73.7,60.8,29.99,NW,305,1.0,5.0,64,0.00,,---,0.00,VWS V14.01,2013-06-30 03:30:00,
2013-06-29 20:31:00,73.7,60.8,29.99,NW,305,1.0,5.0,64,0.00,,---,0.00,VWS V14.01,2013-06-30 03:31:00,
2013-06-29 20:35:00,73.5,60.6,29.99,East,99,2.0,3.0,64,0.00,,---,0.00,VWS V14.01,2013-06-30 03:35:00,
2013-06-29 20:36:00,73.5,60.6,29.99,East,99,2.0,3.0,64,0.00,,---,0.00,VWS V14.01,2013-06-30 03:36:00,
2013-06-29 20:40:00,73.3,60.4,29.99,ENE,71,1.0,4.0,64,0.00,,---,0.00,VWS V14.01,2013-06-30 03:40:00,
2013-06-29 20:41:00,73.3,60.4,29.99,ENE,71,1.0,4.0,64,0.00,,---,0.00,VWS V14.01,2013-06-30 03:41:00,
2013-06-29 20:45:00,72.8,60.4,29.99,WSW,255,0.0,5.0,65,0.00,,---,0.00,VWS V14.01,2013-06-30 03:45:00,
2013-06-29 20:46:00,72.9,60.5,29.99,WSW,256,0.0,5.0,65,0.00,,---,0.00,VWS V14.01,2013-06-30 03:46:00,
2013-06-29 20:50:00,72.7,60.3,29.99,WNW,291,1.0,5.0,65,0.00,,---,0.00,VWS V14.01,2013-06-30 03:50:00,
2013-06-29 20:51:00,72.7,60.3,29.99,WNW,291,2.0,5.0,65,0.00,,---,0.00,VWS V14.01,2013-06-30 03:51:00,
2013-06-29 20:55:00,72.2,60.2,29.99,NW,310,0.0,5.0,66,0.00,,---,0.00,VWS V14.01,2013-06-30 03:55:00,
2013-06-29 20:56:00,72.2,60.2,29.99,NW,310,0.0,5.0,66,0.00,,---,0.00,VWS V14.01,2013-06-30 03:56:00,
2013-06-29 21:00:00,71.6,60.1,29.99,NE,37,3.0,4.0,67,0.00,,---,0.00,VWS V14.01,2013-06-30 04:00:00,
2013-06-29 21:01:00,71.7,60.2,29.99,NW,309,1.0,4.0,67,0.00,,---,0.00,VWS V14.01,2013-06-30 04:01:00,
2013-06-29 21:05:00,71.0,59.9,29.99,NE,37,0.0,4.0,68,0.00,,---,0.00,VWS V14.01,2013-06-30 04:05:00,
2013-06-29 21:06:00,71.1,60.0,29.99,NE,38,1.0,4.0,68,0.00,,---,0.00,VWS V14.01,2013-06-30 04:06:00,
2013-06-29 21:10:00,70.7,60.0,30.00,North,2,3.0,4.0,69,0.00,,---,0.00,VWS V14.01,2013-06-30 04:10:00,
2013-06-29 21:11:00,70.7,60.0,30.00,NNE,32,3.0,4.0,69,0.00,,---,0.00,VWS V14.01,2013-06-30 04:11:00,
2013-06-29 21:15:00,70.4,60.2,30.00,ENE,65,0.0,4.0,70,0.00,,---,0.00,VWS V14.01,2013-06-30 04:15:00,
2013-06-29 21:16:00,70.4,60.2,30.00,ENE,65,0.0,4.0,70,0.00,,---,0.00,VWS V14.01,2013-06-30 04:16:00,
2013-06-29 21:20:00,70.3,60.1,30.00,NE,46,1.0,2.0,70,0.00,,---,0.00,VWS V14.01,2013-06-30 04:20:00,
2013-06-29 21:21:00,70.3,60.1,30.00,NE,43,1.0,2.0,70,0.00,,---,0.00,VWS V14.01,2013-06-30 04:21:00,
2013-06-29 21:25:00,70.2,60.0,30.00,NW,323,4.0,4.0,70,0.00,,---,0.00,VWS V14.01,2013-06-30 04:25:00,
2013-06-29 21:26:00,70.2,60.0,30.00,NW,326,3.0,4.0,70,0.00,,---,0.00,VWS V14.01,2013-06-30 04:26:00,
2013-06-29 21:30:00,70.1,59.9,30.00,ENE,60,0.0,5.0,70,0.00,,---,0.00,VWS V14.01,2013-06-30 04:30:00,
2013-06-29 21:31:00,70.1,59.9,30.00,ENE,60,0.0,5.0,70,0.00,,---,0.00,VWS V14.01,2013-06-30 04:31:00,
2013-06-29 21:35:00,69.9,60.1,30.00,NNE,13,1.0,3.0,71,0.00,,---,0.00,VWS V14.01,2013-06-30 04:35:00,
2013-06-29 21:36:00,69.9,60.1,30.00,North,358,1.0,3.0,71,0.00,,---,0.00,VWS V14.01,2013-06-30 04:36:00,
2013-06-29 21:40:00,69.8,60.0,30.00,NNE,24,0.0,2.0,71,0.00,,---,0.00,VWS V14.01,2013-06-30 04:40:00,
2013-06-29 21:41:00,69.9,60.1,30.00,NNE,24,0.0,2.0,71,0.00,,---,0.00,VWS V14.01,2013-06-30 04:41:00,
2013-06-29 21:45:00,69.7,59.9,30.00,NE,50,1.0,2.0,71,0.00,,---,0.00,VWS V14.01,2013-06-30 04:45:00,
2013-06-29 21:46:00,69.7,59.9,30.00,NE,40,1.0,2.0,71,0.00,,---,0.00,VWS V14.01,2013-06-30 04:46:00,
2013-06-29 21:50:00,69.6,60.2,30.00,East,83,1.0,3.0,72,0.00,,---,0.00,VWS V14.01,2013-06-30 04:50:00,
2013-06-29 21:51:00,69.7,60.3,30.00,East,83,1.0,3.0,72,0.00,,---,0.00,VWS V14.01,2013-06-30 04:51:00,
2013-06-29 21:55:00,69.6,60.2,30.00,NNW,338,1.0,2.0,72,0.00,,---,0.00,VWS V14.01,2013-06-30 04:55:00,
2013-06-29 21:56:00,69.6,60.2,30.00,NW,318,1.0,2.0,72,0.00,,---,0.00,VWS V14.01,2013-06-30 04:56:00,
2013-06-29 22:00:00,69.6,60.2,30.00,NNE,25,2.0,5.0,72,0.00,,---,0.00,VWS V14.01,2013-06-30 05:00:00,
2013-06-29 22:01:00,69.6,60.2,30.00,NNE,31,3.0,5.0,72,0.00,,---,0.00,VWS V14.01,2013-06-30 05:01:00,
2013-06-29 22:05:00,69.6,60.2,30.00,NNE,27,1.0,3.0,72,0.00,,---,0.00,VWS V14.01,2013-06-30 05:05:00,
2013-06-29 22:06:00,69.6,60.2,30.00,NE,40,1.0,3.0,72,0.00,,---,0.00,VWS V14.01,2013-06-30 05:06:00,
2013-06-29 22:10:00,69.5,59.7,30.00,North,4,0.0,3.0,71,0.00,,---,0.00,VWS V14.01,2013-06-30 05:10:00,
2013-06-29 22:11:00,69.5,59.7,30.00,North,358,0.0,3.0,71,0.00,,---,0.00,VWS V14.01,2013-06-30 05:11:00,
2013-06-29 22:15:00,69.5,59.7,30.00,NW,314,0.0,3.0,71,0.00,,---,0.00,VWS V14.01,2013-06-30 05:15:00,
2013-06-29 22:16:00,69.5,59.7,30.00,NW,314,1.0,3.0,71,0.00,,---,0.00,VWS V14.01,2013-06-30 05:16:00,
2013-06-29 22:20:00,69.5,59.3,30.00,North,349,1.0,3.0,70,0.00,,---,0.00,VWS V14.01,2013-06-30 05:20:00,
2013-06-29 22:21:00,69.5,59.3,30.00,North,354,2.0,3.0,70,0.00,,---,0.00,VWS V14.01,2013-06-30 05:21:00,
2013-06-29 22:25:00,69.5,59.3,30.01,NNE,16,0.0,3.0,70,0.00,,---,0.00,VWS V14.01,2013-06-30 05:25:00,
2013-06-29 22:26:00,69.5,59.3,30.01,NNE,16,0.0,3.0,70,0.00,,---,0.00,VWS V14.01,2013-06-30 05:26:00,
2013-06-29 22:30:00,69.4,59.2,30.01,NNE,31,1.0,2.0,70,0.00,,---,0.00,VWS V14.01,2013-06-30 05:30:00,
2013-06-29 22:31:00,69.4,59.2,30.01,NNE,31,1.0,2.0,70,0.00,,---,0.00,VWS V14.01,2013-06-30 05:31:00,
2013-06-29 22:35:00,69.3,58.7,30.01,NE,36,0.0,2.0,69,0.00,,---,0.00,VWS V14.01,2013-06-30 05:35:00,
2013-06-29 22:36:00,69.3,58.7,30.01,NNE,28,1.0,2.0,69,0.00,,---,0.00,VWS V14.01,2013-06-30 05:36:00,
2013-06-29 22:40:00,69.2,58.6,30.01,NNE,29,1.0,2.0,69,0.00,,---,0.00,VWS V14.01,2013-06-30 05:40:00,
2013-06-29 22:41:00,69.2,58.6,30.01,North,1,1.0,2.0,69,0.00,,---,0.00,VWS V14.01,2013-06-30 05:41:00,
2013-06-29 22:45:00,69.2,58.6,30.00,NE,39,0.0,3.0,69,0.00,,---,0.00,VWS V14.01,2013-06-30 05:45:00,
2013-06-29 22:46:00,69.2,58.6,30.00,NE,39,1.0,3.0,69,0.00,,---,0.00,VWS V14.01,2013-06-30 05:46:00,
2013-06-29 22:50:00,69.2,58.2,30.01,NE,35,0.0,4.0,68,0.00,,---,0.00,VWS V14.01,2013-06-30 05:50:00,
2013-06-29 22:51:00,69.2,58.2,30.01,NE,34,1.0,4.0,68,0.00,,---,0.00,VWS V14.01,2013-06-30 05:51:00,
2013-06-29 22:55:00,69.2,58.2,30.01,NE,46,0.0,2.0,68,0.00,,---,0.00,VWS V14.01,2013-06-30 05:55:00,
2013-06-29 22:56:00,69.2,58.2,30.01,NE,46,1.0,2.0,68,0.00,,---,0.00,VWS V14.01,2013-06-30 05:56:00,
2013-06-29 23:00:00,69.2,58.2,30.00,NNE,29,0.0,1.0,68,0.00,,---,0.00,VWS V14.01,2013-06-30 06:00:00,
2013-06-29 23:01:00,69.1,58.1,30.00,NNE,29,0.0,1.0,68,0.00,,---,0.00,VWS V14.01,2013-06-30 06:01:00,
2013-06-29 23:05:00,69.0,58.4,30.00,West,271,0.0,2.0,69,0.00,,---,0.00,VWS V14.01,2013-06-30 06:05:00,
2013-06-29 23:06:00,69.0,58.4,30.00,West,271,0.0,2.0,69,0.00,,---,0.00,VWS V14.01,2013-06-30 06:06:00,
2013-06-29 23:10:00,68.9,58.3,30.01,WNW,290,1.0,2.0,69,0.00,,---,0.00,VWS V14.01,2013-06-30 06:10:00,
2013-06-29 23:11:00,68.9,58.3,30.01,NNW,334,0.0,2.0,69,0.00,,---,0.00,VWS V14.01,2013-06-30 06:11:00,
2013-06-29 23:15:00,68.8,58.2,30.01,WNW,290,0.0,1.0,69,0.00,,---,0.00,VWS V14.01,2013-06-30 06:15:00,
2013-06-29 23:16:00,68.8,58.6,30.01,WNW,290,0.0,1.0,70,0.00,,---,0.00,VWS V14.01,2013-06-30 06:16:00,
2013-06-29 23:20:00,68.5,58.3,30.01,NW,316,0.0,1.0,70,0.00,,---,0.00,VWS V14.01,2013-06-30 06:20:00,
2013-06-29 23:21:00,68.5,58.3,30.01,NW,316,0.0,1.0,70,0.00,,---,0.00,VWS V14.01,2013-06-30 06:21:00,
2013-06-29 23:25:00,68.1,58.3,30.01,NW,316,0.0,0.0,71,0.00,,---,0.00,VWS V14.01,2013-06-30 06:25:00,
2013-06-29 23:26:00,68.1,58.3,30.01,NW,316,0.0,0.0,71,0.00,,---,0.00,VWS V14.01,2013-06-30 06:26:00,
2013-06-29 23:30:00,67.6,58.7,30.01,NW,316,0.0,0.0,73,0.00,,---,0.00,VWS V14.01,2013-06-30 06:30:00,
2013-06-29 23:31:00,67.7,58.7,30.01,NW,316,0.0,0.0,73,0.00,,---,0.00,VWS V14.01,2013-06-30 06:31:00,
2013-06-29 23:35:00,67.0,58.8,30.01,NW,316,0.0,0.0,75,0.00,,---,0.00,VWS V14.01,2013-06-30 06:35:00,
2013-06-29 23:36:00,67.0,58.8,30.01,NW,316,0.0,0.0,75,0.00,,---,0.00,VWS V14.01,2013-06-30 06:36:00,
2013-06-29 23:40:00,66.9,58.0,30.01,NW,316,0.0,0.0,73,0.00,,---,0.00,VWS V14.01,2013-06-30 06:40:00,
2013-06-29 23:41:00,66.9,58.0,30.01,NW,316,0.0,0.0,73,0.00,,---,0.00,VWS V14.01,2013-06-30 06:41:00,
2013-06-29 23:45:00,66.8,58.6,30.01,NW,315,0.0,0.0,75,0.00,,---,0.00,VWS V14.01,2013-06-30 06:45:00,
2013-06-29 23:46:00,66.8,58.6,30.01,NW,315,0.0,0.0,75,0.00,,---,0.00,VWS V14.01,2013-06-30 06:46:00,
2013-06-29 23:50:00,66.3,58.5,30.01,NW,316,0.0,0.0,76,0.00,,---,0.00,VWS V14.01,2013-06-30 06:50:00,
2013-06-29 23:51:00,66.4,58.6,30.01,NW,316,0.0,0.0,76,0.00,,---,0.00,VWS V14.01,2013-06-30 06:51:00,
2013-06-29 23:55:00,66.1,58.7,30.01,NW,316,0.0,1.0,77,0.00,,---,0.00,VWS V14.01,2013-06-30 06:55:00,
2013-06-29 23:56:00,66.1,58.7,30.01,NW,316,0.0,1.0,77,0.00,,---,0.00,VWS V14.01,2013-06-30 06:56:00,